GFSNGP_prec_precacc_045.txt.gz
Total_Precipitation_Accumulation
0.00 0.00 0.00 0.00 0.00 0.00 0.00 0.00 0.01 0.00 0.00 0.00 0.00 0.00 0.00 0.00 0.00 0.00 0.00 0.00 0.00 0.01 0.01 0.01 0.05 0.06 0.04 0.07 0.12 0.16 0.15 0.17 0.14 0.23 0.17 0.14 0.09 0.06 0.09 0.12 0.16 0.10 0.09 0.07
0.00 0.00 0.00 0.00 0.00 0.00 0.00 0.00 0.00 0.00 0.00 0.00 0.00 0.00 0.00 0.00 0.00 0.00 0.00 0.00 0.00 0.00 0.01 0.01 0.01 0.01 0.02 0.03 0.06 0.05 0.05 0.09 0.07 0.10 0.10 0.10 0.06 0.04 0.05 0.08 0.08 0.08 0.10 0.12
0.01 0.00 0.00 0.00 0.00 0.00 0.00 0.00 0.00 0.00 0.00 0.00 0.00 0.00 0.00 0.00 0.00 0.00 0.00 0.00 0.00 0.00 0.00 0.01 0.01 0.00 0.01 0.01 0.01 0.02 0.05 0.04 0.05 0.06 0.08 0.06 0.07 0.05 0.06 0.07 0.04 0.06 0.11 0.16
0.05 0.01 0.04 0.02 0.00 0.00 0.00 0.00 0.00 0.00 0.00 0.00 0.00 0.00 0.00 0.00 0.00 0.00 0.00 0.00 0.00 0.00 0.00 0.00 0.00 0.00 0.00 0.00 0.00 0.01 0.03 0.04 0.04 0.05 0.05 0.07 0.06 0.05 0.05 0.06 0.11 0.16 0.17 0.14
0.13 0.07 0.04 0.00 0.00 0.00 0.00 0.00 0.00 0.00 0.00 0.00 0.00 0.00 0.00 0.00 0.00 0.00 0.00 0.00 0.00 0.00 0.00 0.00 0.00 0.00 0.00 0.00 0.01 0.01 0.02 0.02 0.03 0.05 0.05 0.04 0.04 0.09 0.17 0.21 0.18 0.12 0.04 0.01
0.16 0.15 0.10 0.01 0.00 0.00 0.00 0.01 0.00 0.00 0.00 0.00 0.00 0.00 0.00 0.00 0.00 0.00 0.00 0.00 0.00 0.00 0.00 0.00 0.00 0.00 0.01 0.01 0.01 0.01 0.01 0.01 0.02 0.02 0.04 0.09 0.19 0.21 0.15 0.07 0.03 0.03 0.04 0.04
0.16 0.16 0.05 0.01 0.01 0.00 0.03 0.02 0.00 0.00 0.00 0.00 0.00 0.00 0.00 0.00 0.00 0.00 0.00 0.00 0.00 0.00 0.00 0.00 0.00 0.00 0.00 0.00 0.00 0.00 0.01 0.01 0.03 0.08 0.14 0.16 0.13 0.06 0.03 0.02 0.02 0.01 0.00 0.00
0.21 0.17 0.05 0.02 0.05 0.07 0.04 0.00 0.00 0.00 0.00 0.00 0.00 0.00 0.00 0.00 0.00 0.00 0.00 0.00 0.00 0.00 0.00 0.00 0.00 0.00 0.01 0.00 0.01 0.01 0.03 0.07 0.12 0.15 0.12 0.07 0.02 0.00 0.00 0.00 0.00 0.00 0.00 0.00
0.10 0.06 0.02 0.02 0.03 0.02 0.01 0.01 0.01 0.01 0.00 0.00 0.00 0.00 0.00 0.00 0.00 0.00 0.00 0.00 0.00 0.00 0.00 0.00 0.00 0.00 0.01 0.03 0.04 0.04 0.06 0.08 0.08 0.04 0.01 0.00 0.00 0.00 0.00 0.00 0.00 0.00 0.00 0.00
0.04 0.02 0.03 0.03 0.02 0.01 0.00 0.01 0.01 0.00 0.00 0.00 0.00 0.00 0.00 0.00 0.00 0.00 0.00 0.00 0.00 0.00 0.00 0.02 0.04 0.05 0.05 0.04 0.03 0.02 0.02 0.01 0.00 0.00 0.00 0.00 0.00 0.00 0.00 0.00 0.00 0.00 0.00 0.00
0.02 0.01 0.02 0.03 0.12 0.09 0.04 0.02 0.02 0.01 0.02 0.02 0.02 0.01 0.01 0.01 0.01 0.00 0.01 0.03 0.02 0.03 0.05 0.05 0.02 0.01 0.01 0.02 0.01 0.01 0.00 0.00 0.00 0.00 0.00 0.00 0.00 0.00 0.00 0.00 0.00 0.00 0.01 0.01
0.03 0.02 0.00 0.00 0.03 0.03 0.08 0.10 0.04 0.03 0.03 0.02 0.01 0.02 0.01 0.01 0.01 0.04 0.05 0.02 0.03 0.03 0.02 0.02 0.01 0.01 0.00 0.00 0.00 0.00 0.00 0.00 0.00 0.00 0.00 0.00 0.00 0.00 0.00 0.00 0.00 0.00 0.00 0.00
0.01 0.01 0.03 0.01 0.02 0.03 0.01 0.03 0.04 0.02 0.01 0.01 0.00 0.01 0.00 0.01 0.07 0.12 0.09 0.07 0.03 0.02 0.01 0.01 0.01 0.00 0.00 0.00 0.00 0.00 0.00 0.00 0.00 0.00 0.00 0.01 0.01 0.00 0.00 0.00 0.00 0.00 0.00 0.00
0.01 0.02 0.04 0.02 0.02 0.00 0.01 0.00 0.00 0.00 0.00 0.00 0.00 0.00 0.07 0.17 0.20 0.13 0.07 0.03 0.01 0.01 0.01 0.01 0.01 0.00 0.00 0.00 0.00 0.00 0.00 0.00 0.00 0.00 0.01 0.01 0.01 0.01 0.01 0.03 0.05 0.05 0.04 0.01
0.01 0.01 0.01 0.01 0.00 0.00 0.00 0.00 0.00 0.00 0.00 0.02 0.10 0.25 0.27 0.15 0.06 0.02 0.01 0.01 0.02 0.02 0.01 0.00 0.00 0.00 0.00 0.00 0.00 0.00 0.00 0.01 0.02 0.03 0.03 0.04 0.06 0.08 0.09 0.11 0.11 0.09 0.07 0.05
0.00 0.00 0.00 0.00 0.00 0.00 0.00 0.00 0.00 0.01 0.04 0.16 0.23 0.12 0.03 0.01 0.01 0.01 0.00 0.00 0.01 0.01 0.01 0.01 0.03 0.05 0.07 0.08 0.11 0.13 0.14 0.14 0.14 0.16 0.20 0.20 0.18 0.15 0.13 0.13 0.12 0.12 0.11 0.09
0.01 0.01 0.00 0.00 0.00 0.00 0.00 0.01 0.02 0.05 0.07 0.05 0.01 0.00 0.00 0.01 0.01 0.02 0.04 0.06 0.07 0.11 0.18 0.23 0.31 0.36 0.37 0.34 0.31 0.32 0.30 0.29 0.27 0.25 0.21 0.19 0.17 0.15 0.14 0.15 0.14 0.13 0.12 0.08
0.10 0.10 0.09 0.07 0.04 0.02 0.05 0.06 0.05 0.03 0.01 0.00 0.01 0.02 0.03 0.06 0.11 0.19 0.27 0.32 0.40 0.53 0.62 0.63 0.55 0.50 0.47 0.42 0.35 0.30 0.25 0.21 0.18 0.16 0.15 0.16 0.14 0.14 0.14 0.14 0.11 0.10 0.09 0.08
0.08 0.08 0.08 0.08 0.10 0.08 0.05 0.03 0.03 0.05 0.07 0.09 0.14 0.26 0.37 0.52 0.63 0.76 0.81 0.77 0.74 0.65 0.68 0.52 0.42 0.32 0.27 0.22 0.16 0.14 0.14 0.13 0.11 0.10 0.10 0.10 0.11 0.11 0.13 0.15 0.17 0.17 0.17 0.14
0.13 0.14 0.12 0.13 0.12 0.11 0.12 0.18 0.21 0.34 0.52 0.54 0.64 0.76 0.83 0.93 0.85 0.76 0.63 0.58 0.53 0.46 0.38 0.30 0.22 0.17 0.14 0.11 0.10 0.08 0.09 0.08 0.09 0.09 0.09 0.10 0.11 0.10 0.11 0.12 0.15 0.19 0.21 0.21
0.32 0.34 0.40 0.45 0.55 0.65 0.71 0.79 0.67 0.76 0.92 0.81 0.66 0.70 0.65 0.66 0.57 0.47 0.36 0.32 0.37 0.27 0.21 0.18 0.14 0.11 0.07 0.06 0.06 0.06 0.07 0.07 0.07 0.08 0.11 0.13 0.15 0.16 0.18 0.19 0.20 0.20 0.21 0.22
0.78 0.74 0.81 0.77 0.62 0.74 0.79 0.72 0.59 0.58 0.57 0.54 0.50 0.47 0.38 0.40 0.35 0.31 0.28 0.24 0.25 0.17 0.12 0.09 0.07 0.05 0.04 0.03 0.04 0.05 0.06 0.09 0.11 0.14 0.17 0.18 0.22 0.26 0.28 0.29 0.30 0.30 0.33 0.34
0.72 0.61 0.55 0.49 0.42 0.45 0.43 0.39 0.39 0.31 0.32 0.32 0.30 0.28 0.24 0.24 0.20 0.14 0.16 0.16 0.09 0.07 0.05 0.05 0.03 0.01 0.02 0.06 0.08 0.10 0.12 0.15 0.16 0.19 0.26 0.32 0.34 0.32 0.26 0.22 0.19 0.18 0.18 0.17
0.39 0.33 0.34 0.33 0.21 0.13 0.18 0.24 0.18 0.16 0.15 0.14 0.14 0.13 0.10 0.07 0.09 0.07 0.06 0.05 0.03 0.02 0.02 0.04 0.03 0.03 0.05 0.08 0.09 0.12 0.16 0.21 0.24 0.26 0.23 0.19 0.18 0.17 0.15 0.12 0.09 0.08 0.08 0.08
0.27 0.27 0.26 0.20 0.14 0.19 0.17 0.15 0.09 0.09 0.07 0.07 0.06 0.04 0.04 0.04 0.05 0.05 0.04 0.02 0.02 0.04 0.05 0.04 0.05 0.06 0.08 0.10 0.13 0.16 0.18 0.18 0.18 0.18 0.17 0.15 0.13 0.11 0.09 0.08 0.08 0.07 0.06 0.05
0.18 0.17 0.19 0.18 0.19 0.18 0.15 0.10 0.12 0.14 0.08 0.07 0.08 0.07 0.07 0.04 0.04 0.04 0.04 0.03 0.02 0.03 0.08 0.12 0.11 0.12 0.15 0.17 0.19 0.19 0.18 0.16 0.14 0.12 0.11 0.08 0.08 0.06 0.06 0.04 0.04 0.03 0.03 0.03
0.21 0.19 0.16 0.17 0.17 0.13 0.11 0.09 0.08 0.08 0.08 0.08 0.09 0.09 0.07 0.05 0.04 0.03 0.03 0.04 0.05 0.08 0.11 0.13 0.14 0.15 0.15 0.15 0.14 0.12 0.10 0.09 0.08 0.06 0.04 0.03 0.03 0.03 0.02 0.02 0.02 0.02 0.02 0.02

GFSNGP_prec_precacc_048.txt.gz
Total_Precipitation_Accumulation
0.00 0.00 0.00 0.00 0.00 0.00 0.00 0.00 0.01 0.00 0.00 0.00 0.00 0.00 0.00 0.00 0.00 0.00 0.00 0.00 0.00 0.01 0.01 0.01 0.05 0.06 0.04 0.07 0.12 0.16 0.15 0.17 0.14 0.23 0.17 0.15 0.10 0.12 0.15 0.17 0.24 0.19 0.18 0.09
0.00 0.00 0.00 0.00 0.00 0.00 0.00 0.00 0.00 0.00 0.00 0.00 0.00 0.00 0.00 0.00 0.00 0.00 0.00 0.00 0.00 0.00 0.01 0.01 0.01 0.01 0.02 0.03 0.06 0.05 0.05 0.09 0.07 0.10 0.10 0.11 0.06 0.06 0.09 0.10 0.11 0.14 0.16 0.16
0.01 0.00 0.00 0.00 0.00 0.00 0.00 0.00 0.00 0.00 0.00 0.00 0.00 0.00 0.00 0.00 0.00 0.00 0.00 0.00 0.00 0.00 0.00 0.01 0.01 0.00 0.01 0.01 0.01 0.02 0.05 0.04 0.05 0.06 0.08 0.06 0.09 0.06 0.08 0.11 0.09 0.10 0.16 0.23
0.05 0.01 0.04 0.02 0.00 0.00 0.00 0.00 0.00 0.00 0.00 0.00 0.00 0.00 0.00 0.00 0.00 0.00 0.00 0.00 0.00 0.00 0.00 0.00 0.00 0.00 0.00 0.00 0.00 0.01 0.03 0.04 0.04 0.05 0.06 0.07 0.07 0.09 0.10 0.12 0.17 0.21 0.22 0.19
0.13 0.07 0.04 0.00 0.00 0.00 0.00 0.00 0.00 0.00 0.00 0.00 0.00 0.00 0.00 0.00 0.00 0.00 0.00 0.00 0.00 0.00 0.00 0.00 0.00 0.00 0.00 0.00 0.01 0.01 0.02 0.02 0.04 0.06 0.06 0.06 0.08 0.13 0.22 0.27 0.24 0.16 0.09 0.05
0.16 0.15 0.10 0.01 0.00 0.00 0.00 0.01 0.00 0.00 0.00 0.00 0.00 0.00 0.00 0.00 0.00 0.00 0.00 0.00 0.00 0.00 0.00 0.00 0.00 0.00 0.01 0.01 0.01 0.01 0.01 0.01 0.02 0.03 0.05 0.10 0.20 0.23 0.18 0.11 0.06 0.05 0.05 0.05
0.16 0.17 0.05 0.01 0.01 0.00 0.03 0.02 0.00 0.00 0.00 0.00 0.00 0.00 0.00 0.00 0.00 0.00 0.00 0.00 0.00 0.00 0.00 0.00 0.00 0.00 0.00 0.00 0.00 0.00 0.01 0.02 0.04 0.08 0.14 0.16 0.13 0.08 0.05 0.03 0.03 0.02 0.01 0.00
0.21 0.18 0.05 0.02 0.05 0.08 0.04 0.00 0.00 0.00 0.00 0.00 0.00 0.00 0.00 0.00 0.00 0.00 0.00 0.00 0.00 0.00 0.00 0.00 0.00 0.00 0.01 0.00 0.01 0.02 0.05 0.08 0.12 0.15 0.12 0.07 0.03 0.02 0.02 0.01 0.00 0.00 0.00 0.00
0.10 0.06 0.02 0.02 0.03 0.02 0.01 0.01 0.01 0.01 0.00 0.00 0.00 0.00 0.00 0.00 0.00 0.00 0.00 0.00 0.00 0.00 0.00 0.00 0.00 0.00 0.01 0.04 0.07 0.08 0.08 0.10 0.09 0.04 0.01 0.01 0.00 0.01 0.00 0.00 0.00 0.00 0.00 0.00
0.04 0.02 0.03 0.03 0.02 0.01 0.00 0.01 0.01 0.00 0.00 0.00 0.00 0.00 0.00 0.00 0.00 0.00 0.00 0.00 0.00 0.00 0.00 0.02 0.04 0.05 0.07 0.08 0.05 0.04 0.03 0.02 0.00 0.00 0.00 0.00 0.00 0.00 0.00 0.00 0.00 0.00 0.00 0.00
0.02 0.01 0.02 0.03 0.12 0.09 0.04 0.02 0.02 0.02 0.03 0.02 0.02 0.02 0.01 0.01 0.01 0.00 0.01 0.03 0.02 0.03 0.05 0.05 0.03 0.02 0.03 0.03 0.01 0.01 0.00 0.00 0.00 0.00 0.00 0.00 0.00 0.00 0.00 0.00 0.00 0.00 0.01 0.01
0.03 0.02 0.00 0.00 0.03 0.03 0.08 0.10 0.04 0.04 0.03 0.03 0.02 0.02 0.01 0.02 0.02 0.04 0.06 0.03 0.03 0.03 0.02 0.02 0.02 0.01 0.00 0.00 0.00 0.00 0.00 0.00 0.00 0.00 0.00 0.00 0.00 0.00 0.00 0.00 0.00 0.00 0.00 0.00
0.01 0.01 0.03 0.02 0.03 0.05 0.02 0.05 0.06 0.04 0.02 0.01 0.01 0.01 0.00 0.01 0.07 0.13 0.10 0.07 0.04 0.02 0.01 0.01 0.01 0.00 0.00 0.00 0.00 0.00 0.00 0.00 0.00 0.00 0.00 0.01 0.01 0.00 0.01 0.01 0.02 0.02 0.03 0.02
0.02 0.02 0.05 0.03 0.03 0.02 0.02 0.02 0.01 0.01 0.00 0.00 0.00 0.00 0.07 0.17 0.20 0.13 0.07 0.04 0.03 0.02 0.03 0.03 0.03 0.01 0.00 0.00 0.00 0.00 0.00 0.00 0.00 0.00 0.01 0.02 0.02 0.03 0.03 0.06 0.09 0.08 0.06 0.02
0.02 0.01 0.01 0.02 0.02 0.01 0.01 0.01 0.01 0.00 0.00 0.02 0.10 0.25 0.27 0.15 0.06 0.02 0.01 0.02 0.03 0.05 0.08 0.10 0.11 0.08 0.04 0.03 0.03 0.04 0.06 0.08 0.09 0.10 0.09 0.09 0.11 0.12 0.13 0.16 0.16 0.15 0.14 0.13
0.00 0.00 0.00 0.00 0.00 0.00 0.00 0.00 0.00 0.01 0.04 0.16 0.23 0.12 0.03 0.01 0.01 0.01 0.01 0.01 0.02 0.03 0.03 0.06 0.13 0.19 0.22 0.24 0.29 0.32 0.31 0.28 0.24 0.23 0.25 0.26 0.26 0.23 0.21 0.21 0.20 0.19 0.18 0.16
0.01 0.01 0.01 0.00 0.00 0.00 0.00 0.01 0.03 0.06 0.07 0.05 0.02 0.00 0.00 0.01 0.01 0.03 0.06 0.07 0.12 0.22 0.34 0.40 0.51 0.53 0.51 0.46 0.40 0.39 0.35 0.34 0.31 0.29 0.26 0.24 0.22 0.19 0.17 0.18 0.17 0.16 0.16 0.12
0.14 0.14 0.12 0.09 0.05 0.04 0.06 0.08 0.07 0.06 0.08 0.08 0.06 0.03 0.03 0.06 0.13 0.23 0.34 0.40 0.49 0.64 0.74 0.74 0.65 0.59 0.54 0.48 0.40 0.34 0.29 0.26 0.21 0.18 0.17 0.17 0.15 0.15 0.15 0.15 0.12 0.11 0.11 0.10
0.17 0.15 0.17 0.15 0.14 0.11 0.09 0.08 0.07 0.09 0.14 0.17 0.21 0.31 0.41 0.57 0.67 0.81 0.86 0.80 0.78 0.70 0.78 0.61 0.49 0.37 0.31 0.26 0.19 0.16 0.15 0.13 0.11 0.11 0.11 0.11 0.11 0.11 0.13 0.16 0.17 0.18 0.17 0.15
0.18 0.19 0.16 0.16 0.15 0.13 0.15 0.21 0.24 0.37 0.57 0.59 0.69 0.81 0.90 1.02 0.93 0.83 0.69 0.62 0.59 0.52 0.44 0.34 0.24 0.19 0.15 0.13 0.10 0.09 0.09 0.09 0.09 0.09 0.10 0.11 0.12 0.10 0.11 0.12 0.15 0.19 0.21 0.21
0.36 0.37 0.43 0.47 0.58 0.69 0.76 0.84 0.71 0.81 0.99 0.88 0.72 0.77 0.72 0.74 0.64 0.53 0.40 0.35 0.43 0.31 0.24 0.21 0.16 0.13 0.09 0.07 0.06 0.07 0.07 0.07 0.07 0.08 0.11 0.13 0.16 0.16 0.18 0.19 0.20 0.20 0.21 0.22
0.82 0.78 0.85 0.81 0.66 0.79 0.86 0.79 0.64 0.63 0.62 0.59 0.55 0.51 0.42 0.44 0.39 0.33 0.31 0.26 0.29 0.19 0.13 0.10 0.07 0.05 0.04 0.03 0.04 0.05 0.06 0.09 0.11 0.14 0.17 0.18 0.22 0.26 0.28 0.29 0.30 0.30 0.33 0.34
0.79 0.67 0.62 0.56 0.48 0.51 0.49 0.44 0.44 0.35 0.35 0.35 0.32 0.31 0.25 0.25 0.21 0.14 0.17 0.16 0.09 0.07 0.05 0.05 0.03 0.01 0.02 0.06 0.08 0.10 0.12 0.15 0.16 0.19 0.26 0.32 0.34 0.32 0.26 0.22 0.19 0.18 0.18 0.17
0.44 0.38 0.37 0.36 0.22 0.14 0.18 0.25 0.18 0.16 0.15 0.15 0.14 0.13 0.10 0.07 0.09 0.07 0.06 0.05 0.03 0.02 0.02 0.04 0.03 0.03 0.05 0.08 0.09 0.12 0.16 0.21 0.24 0.26 0.23 0.19 0.18 0.17 0.15 0.12 0.09 0.09 0.08 0.08
0.28 0.28 0.26 0.20 0.14 0.19 0.17 0.15 0.09 0.09 0.08 0.07 0.07 0.05 0.04 0.04 0.05 0.06 0.04 0.03 0.02 0.04 0.05 0.04 0.05 0.06 0.08 0.10 0.13 0.16 0.18 0.19 0.18 0.18 0.17 0.15 0.13 0.11 0.10 0.09 0.08 0.07 0.06 0.05
0.18 0.18 0.19 0.18 0.19 0.18 0.15 0.10 0.12 0.14 0.08 0.07 0.08 0.07 0.07 0.05 0.04 0.04 0.04 0.03 0.03 0.03 0.08 0.12 0.11 0.12 0.15 0.17 0.19 0.19 0.18 0.16 0.14 0.12 0.11 0.08 0.08 0.07 0.06 0.04 0.04 0.03 0.03 0.03
0.21 0.19 0.16 0.17 0.17 0.13 0.11 0.09 0.08 0.08 0.08 0.08 0.10 0.09 0.07 0.05 0.04 0.03 0.03 0.04 0.05 0.08 0.11 0.13 0.14 0.15 0.15 0.15 0.14 0.12 0.10 0.09 0.08 0.06 0.04 0.04 0.03 0.03 0.02 0.02 0.02 0.02 0.02 0.02

GFSNGP_prec_precacc_051.txt.gz
Total_Precipitation_Accumulation
0.00 0.00 0.00 0.00 0.00 0.00 0.00 0.00 0.01 0.00 0.00 0.00 0.00 0.00 0.00 0.00 0.00 0.00 0.00 0.00 0.00 0.01 0.01 0.01 0.05 0.06 0.04 0.07 0.12 0.16 0.15 0.17 0.14 0.23 0.17 0.15 0.10 0.12 0.15 0.18 0.25 0.21 0.21 0.12
0.00 0.00 0.00 0.00 0.00 0.00 0.00 0.00 0.00 0.00 0.00 0.00 0.00 0.00 0.00 0.00 0.00 0.00 0.00 0.00 0.00 0.00 0.01 0.01 0.01 0.01 0.02 0.03 0.06 0.05 0.05 0.09 0.07 0.10 0.10 0.11 0.06 0.06 0.09 0.11 0.13 0.18 0.22 0.24
0.01 0.00 0.00 0.00 0.00 0.00 0.00 0.00 0.00 0.00 0.00 0.00 0.00 0.00 0.00 0.00 0.00 0.00 0.00 0.00 0.00 0.00 0.00 0.01 0.01 0.00 0.01 0.01 0.01 0.02 0.05 0.04 0.05 0.06 0.08 0.06 0.09 0.06 0.08 0.12 0.10 0.13 0.18 0.28
0.05 0.01 0.04 0.02 0.00 0.00 0.00 0.00 0.00 0.00 0.00 0.00 0.00 0.00 0.00 0.00 0.00 0.00 0.00 0.00 0.00 0.00 0.00 0.00 0.00 0.00 0.00 0.00 0.00 0.01 0.03 0.04 0.04 0.05 0.06 0.07 0.07 0.09 0.10 0.12 0.20 0.23 0.25 0.23
0.13 0.07 0.04 0.00 0.00 0.00 0.00 0.00 0.00 0.00 0.00 0.00 0.00 0.00 0.00 0.00 0.00 0.00 0.00 0.00 0.00 0.00 0.00 0.00 0.00 0.00 0.00 0.00 0.01 0.01 0.02 0.02 0.04 0.06 0.06 0.06 0.08 0.13 0.22 0.28 0.27 0.22 0.13 0.09
0.17 0.16 0.10 0.01 0.00 0.00 0.00 0.01 0.00 0.00 0.00 0.00 0.00 0.00 0.00 0.00 0.00 0.00 0.00 0.00 0.00 0.00 0.00 0.00 0.00 0.00 0.01 0.01 0.01 0.01 0.01 0.01 0.02 0.03 0.05 0.10 0.21 0.24 0.19 0.13 0.09 0.08 0.09 0.08
0.19 0.18 0.05 0.01 0.01 0.00 0.03 0.02 0.00 0.00 0.00 0.00 0.00 0.00 0.00 0.00 0.00 0.00 0.00 0.00 0.00 0.00 0.00 0.00 0.00 0.00 0.00 0.00 0.00 0.00 0.01 0.02 0.06 0.10 0.17 0.19 0.14 0.08 0.05 0.04 0.04 0.03 0.03 0.02
0.22 0.18 0.05 0.02 0.05 0.08 0.04 0.00 0.00 0.00 0.00 0.00 0.00 0.00 0.00 0.00 0.00 0.00 0.00 0.00 0.00 0.00 0.00 0.00 0.00 0.00 0.01 0.00 0.01 0.02 0.06 0.11 0.17 0.20 0.16 0.09 0.04 0.02 0.02 0.02 0.02 0.03 0.02 0.02
0.10 0.06 0.02 0.02 0.03 0.02 0.01 0.01 0.01 0.01 0.00 0.00 0.00 0.00 0.00 0.00 0.00 0.00 0.00 0.00 0.00 0.00 0.00 0.00 0.00 0.00 0.01 0.04 0.07 0.09 0.12 0.15 0.16 0.09 0.03 0.01 0.01 0.01 0.02 0.03 0.03 0.05 0.04 0.03
0.04 0.02 0.03 0.03 0.02 0.01 0.00 0.01 0.01 0.00 0.00 0.00 0.00 0.00 0.01 0.01 0.01 0.00 0.00 0.00 0.00 0.00 0.00 0.02 0.04 0.05 0.07 0.09 0.07 0.06 0.05 0.05 0.02 0.00 0.00 0.00 0.01 0.01 0.01 0.02 0.02 0.02 0.01 0.01
0.02 0.01 0.02 0.03 0.12 0.09 0.04 0.02 0.02 0.02 0.03 0.02 0.03 0.03 0.04 0.04 0.02 0.01 0.02 0.03 0.02 0.03 0.05 0.05 0.03 0.02 0.04 0.03 0.02 0.02 0.01 0.00 0.00 0.00 0.00 0.00 0.00 0.00 0.01 0.00 0.00 0.00 0.01 0.01
0.03 0.02 0.00 0.00 0.03 0.03 0.08 0.10 0.04 0.04 0.04 0.08 0.12 0.06 0.04 0.05 0.04 0.07 0.07 0.03 0.03 0.04 0.02 0.03 0.04 0.04 0.01 0.01 0.00 0.00 0.00 0.00 0.00 0.00 0.00 0.00 0.00 0.00 0.00 0.01 0.01 0.01 0.01 0.02
0.01 0.01 0.03 0.02 0.03 0.05 0.02 0.05 0.06 0.05 0.05 0.04 0.03 0.02 0.03 0.07 0.10 0.15 0.12 0.08 0.04 0.02 0.02 0.02 0.02 0.01 0.01 0.00 0.00 0.00 0.00 0.00 0.00 0.00 0.00 0.01 0.01 0.00 0.03 0.07 0.08 0.09 0.09 0.08
0.02 0.02 0.05 0.03 0.03 0.03 0.03 0.02 0.01 0.01 0.01 0.01 0.00 0.01 0.08 0.21 0.23 0.14 0.08 0.05 0.03 0.03 0.04 0.05 0.05 0.06 0.06 0.04 0.03 0.04 0.05 0.06 0.03 0.04 0.06 0.07 0.07 0.08 0.08 0.10 0.12 0.13 0.10 0.05
0.06 0.07 0.08 0.06 0.03 0.02 0.01 0.01 0.01 0.00 0.00 0.02 0.10 0.25 0.27 0.15 0.06 0.02 0.01 0.02 0.03 0.06 0.11 0.15 0.20 0.29 0.33 0.34 0.36 0.39 0.38 0.37 0.32 0.27 0.21 0.17 0.16 0.16 0.16 0.18 0.19 0.19 0.19 0.18
0.00 0.00 0.01 0.02 0.01 0.00 0.00 0.00 0.00 0.01 0.04 0.16 0.23 0.12 0.03 0.01 0.01 0.01 0.01 0.01 0.03 0.06 0.09 0.14 0.22 0.35 0.44 0.51 0.56 0.56 0.50 0.41 0.32 0.29 0.30 0.30 0.29 0.26 0.24 0.24 0.23 0.22 0.21 0.18
0.02 0.01 0.01 0.01 0.01 0.01 0.01 0.01 0.03 0.06 0.07 0.05 0.02 0.01 0.01 0.02 0.02 0.06 0.11 0.14 0.18 0.30 0.42 0.47 0.64 0.71 0.66 0.57 0.47 0.45 0.41 0.40 0.37 0.34 0.31 0.29 0.26 0.22 0.20 0.20 0.19 0.18 0.17 0.14
0.15 0.16 0.16 0.15 0.10 0.06 0.08 0.10 0.09 0.08 0.10 0.10 0.12 0.13 0.16 0.19 0.24 0.31 0.40 0.46 0.53 0.68 0.82 0.86 0.77 0.68 0.62 0.55 0.45 0.38 0.32 0.29 0.24 0.21 0.19 0.18 0.16 0.16 0.16 0.16 0.13 0.12 0.12 0.11
0.19 0.18 0.20 0.20 0.20 0.17 0.14 0.12 0.11 0.13 0.18 0.20 0.25 0.38 0.49 0.64 0.72 0.86 0.91 0.83 0.80 0.72 0.84 0.66 0.52 0.39 0.33 0.28 0.20 0.17 0.16 0.14 0.12 0.11 0.11 0.11 0.12 0.12 0.14 0.16 0.18 0.18 0.18 0.15
0.25 0.26 0.22 0.22 0.19 0.17 0.18 0.25 0.28 0.41 0.62 0.63 0.72 0.84 0.93 1.06 0.98 0.87 0.73 0.65 0.63 0.58 0.49 0.37 0.26 0.20 0.16 0.14 0.10 0.09 0.10 0.09 0.09 0.10 0.10 0.11 0.12 0.10 0.11 0.12 0.15 0.19 0.21 0.21
0.40 0.40 0.47 0.51 0.62 0.72 0.79 0.88 0.73 0.84 1.04 0.93 0.75 0.80 0.75 0.78 0.67 0.56 0.42 0.37 0.47 0.33 0.26 0.21 0.16 0.13 0.09 0.07 0.06 0.07 0.07 0.07 0.07 0.08 0.11 0.13 0.16 0.16 0.18 0.19 0.20 0.20 0.21 0.22
0.86 0.81 0.89 0.85 0.69 0.83 0.90 0.83 0.67 0.67 0.66 0.63 0.59 0.55 0.45 0.47 0.42 0.35 0.32 0.28 0.30 0.19 0.13 0.10 0.07 0.05 0.04 0.03 0.04 0.05 0.06 0.09 0.11 0.14 0.17 0.18 0.22 0.26 0.28 0.29 0.30 0.30 0.33 0.34
0.84 0.73 0.67 0.61 0.52 0.56 0.55 0.49 0.49 0.39 0.39 0.39 0.35 0.33 0.26 0.27 0.22 0.15 0.17 0.16 0.09 0.07 0.05 0.05 0.03 0.01 0.02 0.06 0.08 0.10 0.12 0.15 0.16 0.19 0.26 0.32 0.34 0.32 0.26 0.22 0.19 0.18 0.18 0.17
0.49 0.42 0.40 0.39 0.25 0.16 0.20 0.27 0.19 0.17 0.15 0.15 0.14 0.13 0.10 0.07 0.09 0.07 0.06 0.05 0.03 0.02 0.02 0.04 0.03 0.03 0.05 0.08 0.09 0.12 0.16 0.21 0.24 0.26 0.23 0.19 0.18 0.17 0.15 0.12 0.09 0.09 0.08 0.08
0.30 0.29 0.26 0.20 0.15 0.19 0.17 0.15 0.09 0.09 0.08 0.07 0.07 0.05 0.04 0.04 0.05 0.06 0.04 0.03 0.02 0.04 0.05 0.04 0.05 0.06 0.08 0.10 0.13 0.16 0.18 0.19 0.18 0.18 0.17 0.15 0.13 0.11 0.10 0.09 0.08 0.07 0.06 0.05
0.18 0.18 0.19 0.18 0.19 0.18 0.15 0.10 0.12 0.14 0.08 0.07 0.08 0.07 0.07 0.05 0.04 0.04 0.04 0.03 0.03 0.03 0.08 0.12 0.11 0.12 0.15 0.17 0.19 0.19 0.18 0.16 0.14 0.12 0.11 0.08 0.08 0.07 0.06 0.04 0.04 0.03 0.03 0.03
0.21 0.19 0.16 0.17 0.17 0.13 0.11 0.09 0.08 0.08 0.08 0.08 0.10 0.10 0.08 0.05 0.04 0.03 0.03 0.04 0.05 0.08 0.11 0.13 0.14 0.15 0.15 0.15 0.14 0.12 0.10 0.09 0.08 0.06 0.04 0.04 0.03 0.03 0.02 0.02 0.02 0.02 0.02 0.02

GFSNGP_prec_precacc_054.txt.gz
Total_Precipitation_Accumulation
0.00 0.00 0.00 0.00 0.00 0.00 0.00 0.00 0.01 0.00 0.00 0.00 0.00 0.00 0.00 0.00 0.00 0.00 0.00 0.00 0.00 0.01 0.01 0.01 0.05 0.06 0.04 0.07 0.12 0.16 0.15 0.17 0.14 0.23 0.17 0.15 0.10 0.12 0.15 0.18 0.25 0.21 0.21 0.12
0.00 0.00 0.00 0.00 0.00 0.00 0.00 0.00 0.00 0.00 0.00 0.00 0.00 0.00 0.00 0.00 0.00 0.00 0.00 0.00 0.00 0.00 0.01 0.01 0.01 0.01 0.02 0.03 0.06 0.05 0.05 0.09 0.07 0.10 0.10 0.11 0.06 0.06 0.09 0.11 0.13 0.18 0.22 0.24
0.01 0.00 0.00 0.00 0.00 0.00 0.00 0.00 0.00 0.00 0.00 0.00 0.00 0.00 0.00 0.00 0.00 0.00 0.00 0.00 0.00 0.00 0.00 0.01 0.01 0.00 0.01 0.01 0.01 0.02 0.05 0.04 0.05 0.06 0.08 0.06 0.09 0.06 0.08 0.12 0.10 0.13 0.18 0.28
0.06 0.01 0.04 0.02 0.00 0.00 0.00 0.00 0.00 0.00 0.00 0.00 0.00 0.00 0.00 0.00 0.00 0.00 0.00 0.00 0.00 0.00 0.00 0.00 0.00 0.00 0.00 0.00 0.00 0.01 0.03 0.04 0.04 0.05 0.06 0.07 0.07 0.09 0.11 0.12 0.20 0.24 0.26 0.24
0.14 0.08 0.04 0.00 0.00 0.00 0.00 0.00 0.00 0.00 0.00 0.00 0.00 0.00 0.00 0.00 0.00 0.00 0.00 0.00 0.00 0.00 0.00 0.00 0.00 0.00 0.00 0.00 0.01 0.01 0.02 0.02 0.04 0.06 0.06 0.06 0.08 0.13 0.22 0.28 0.27 0.22 0.13 0.11
0.18 0.16 0.10 0.01 0.00 0.00 0.00 0.01 0.00 0.00 0.00 0.00 0.00 0.00 0.00 0.00 0.00 0.00 0.00 0.00 0.00 0.00 0.00 0.00 0.00 0.00 0.01 0.01 0.01 0.01 0.01 0.01 0.02 0.03 0.05 0.10 0.21 0.24 0.19 0.13 0.09 0.08 0.10 0.10
0.21 0.19 0.05 0.01 0.01 0.00 0.03 0.02 0.00 0.00 0.00 0.00 0.00 0.00 0.00 0.00 0.00 0.00 0.00 0.00 0.00 0.00 0.00 0.00 0.00 0.00 0.00 0.00 0.00 0.00 0.01 0.02 0.06 0.10 0.17 0.20 0.15 0.08 0.06 0.05 0.04 0.04 0.04 0.03
0.23 0.19 0.05 0.02 0.06 0.08 0.04 0.00 0.00 0.00 0.00 0.00 0.00 0.00 0.00 0.00 0.00 0.00 0.00 0.00 0.00 0.00 0.00 0.00 0.00 0.00 0.01 0.00 0.01 0.02 0.06 0.11 0.17 0.21 0.19 0.13 0.08 0.07 0.05 0.03 0.03 0.03 0.03 0.03
0.10 0.06 0.02 0.02 0.04 0.03 0.01 0.01 0.01 0.01 0.00 0.00 0.00 0.00 0.00 0.00 0.00 0.00 0.00 0.00 0.00 0.00 0.00 0.00 0.00 0.00 0.01 0.04 0.07 0.09 0.12 0.15 0.17 0.13 0.07 0.05 0.04 0.04 0.03 0.03 0.04 0.06 0.05 0.06
0.04 0.02 0.03 0.03 0.02 0.01 0.00 0.01 0.01 0.00 0.00 0.00 0.00 0.00 0.01 0.02 0.01 0.01 0.01 0.01 0.00 0.00 0.00 0.02 0.04 0.05 0.07 0.09 0.07 0.06 0.05 0.09 0.06 0.05 0.06 0.03 0.02 0.02 0.02 0.03 0.04 0.05 0.05 0.05
0.02 0.01 0.02 0.03 0.12 0.09 0.04 0.02 0.02 0.02 0.03 0.02 0.03 0.03 0.05 0.07 0.07 0.06 0.06 0.05 0.03 0.03 0.07 0.07 0.05 0.04 0.05 0.06 0.07 0.07 0.05 0.04 0.02 0.02 0.01 0.00 0.00 0.02 0.02 0.02 0.04 0.02 0.03 0.04
0.03 0.02 0.00 0.00 0.03 0.03 0.08 0.10 0.04 0.04 0.04 0.08 0.12 0.07 0.05 0.06 0.08 0.15 0.22 0.18 0.09 0.06 0.04 0.05 0.08 0.11 0.09 0.07 0.06 0.05 0.02 0.01 0.02 0.00 0.00 0.01 0.01 0.03 0.05 0.05 0.04 0.02 0.03 0.03
0.01 0.01 0.03 0.02 0.03 0.05 0.02 0.05 0.06 0.05 0.05 0.04 0.03 0.02 0.03 0.08 0.13 0.20 0.23 0.28 0.29 0.22 0.16 0.07 0.03 0.02 0.02 0.04 0.04 0.04 0.02 0.01 0.01 0.02 0.02 0.03 0.03 0.02 0.05 0.12 0.13 0.15 0.14 0.12
0.02 0.02 0.05 0.03 0.03 0.03 0.03 0.02 0.01 0.01 0.01 0.01 0.00 0.01 0.08 0.21 0.25 0.19 0.16 0.15 0.14 0.16 0.22 0.21 0.19 0.19 0.20 0.20 0.25 0.28 0.22 0.21 0.21 0.23 0.26 0.26 0.25 0.23 0.19 0.19 0.20 0.21 0.17 0.10
0.06 0.07 0.08 0.06 0.03 0.02 0.01 0.01 0.01 0.00 0.00 0.02 0.10 0.26 0.28 0.16 0.07 0.04 0.04 0.10 0.14 0.15 0.21 0.24 0.27 0.40 0.50 0.58 0.68 0.77 0.79 0.78 0.71 0.61 0.50 0.37 0.30 0.25 0.22 0.24 0.25 0.25 0.24 0.22
0.00 0.00 0.01 0.02 0.02 0.01 0.00 0.00 0.00 0.01 0.05 0.16 0.24 0.14 0.05 0.02 0.03 0.05 0.06 0.05 0.06 0.10 0.14 0.18 0.29 0.47 0.55 0.62 0.71 0.74 0.69 0.60 0.48 0.41 0.41 0.38 0.36 0.32 0.30 0.29 0.27 0.26 0.24 0.21
0.02 0.02 0.02 0.02 0.01 0.01 0.02 0.02 0.04 0.07 0.08 0.07 0.04 0.03 0.03 0.03 0.04 0.10 0.20 0.26 0.28 0.39 0.52 0.58 0.77 0.81 0.76 0.66 0.55 0.53 0.49 0.48 0.43 0.38 0.34 0.31 0.28 0.24 0.22 0.21 0.20 0.18 0.18 0.14
0.15 0.17 0.17 0.16 0.12 0.08 0.11 0.13 0.12 0.11 0.14 0.14 0.15 0.16 0.18 0.23 0.32 0.44 0.58 0.60 0.61 0.72 0.86 0.90 0.80 0.70 0.64 0.58 0.47 0.40 0.34 0.30 0.25 0.21 0.19 0.18 0.16 0.16 0.16 0.16 0.13 0.13 0.12 0.11
0.20 0.19 0.22 0.22 0.23 0.20 0.17 0.16 0.15 0.17 0.21 0.24 0.28 0.42 0.52 0.68 0.76 0.90 0.96 0.85 0.82 0.73 0.88 0.69 0.53 0.39 0.33 0.28 0.20 0.17 0.16 0.14 0.12 0.11 0.11 0.11 0.12 0.12 0.14 0.16 0.18 0.18 0.18 0.15
0.27 0.29 0.25 0.25 0.23 0.21 0.21 0.29 0.31 0.44 0.66 0.67 0.75 0.87 0.95 1.09 1.01 0.91 0.75 0.67 0.65 0.60 0.51 0.38 0.27 0.20 0.16 0.14 0.10 0.09 0.10 0.09 0.09 0.10 0.10 0.11 0.12 0.10 0.11 0.12 0.15 0.19 0.21 0.21
0.43 0.44 0.50 0.54 0.65 0.76 0.83 0.93 0.77 0.87 1.08 0.96 0.78 0.83 0.78 0.82 0.71 0.60 0.44 0.38 0.48 0.34 0.26 0.21 0.16 0.13 0.09 0.07 0.06 0.07 0.07 0.07 0.07 0.08 0.11 0.13 0.16 0.16 0.18 0.19 0.20 0.20 0.21 0.22
0.89 0.84 0.92 0.88 0.71 0.86 0.95 0.88 0.72 0.71 0.70 0.66 0.62 0.58 0.48 0.50 0.44 0.36 0.33 0.28 0.30 0.19 0.13 0.10 0.07 0.05 0.04 0.03 0.04 0.05 0.06 0.09 0.11 0.14 0.17 0.18 0.22 0.26 0.28 0.29 0.30 0.30 0.33 0.34
0.87 0.76 0.71 0.65 0.57 0.60 0.59 0.53 0.53 0.43 0.42 0.41 0.37 0.34 0.27 0.27 0.22 0.15 0.17 0.16 0.09 0.07 0.05 0.05 0.03 0.01 0.02 0.06 0.08 0.10 0.12 0.15 0.16 0.19 0.26 0.32 0.34 0.32 0.27 0.23 0.20 0.18 0.18 0.17
0.52 0.46 0.44 0.42 0.28 0.17 0.21 0.28 0.20 0.17 0.15 0.15 0.14 0.13 0.10 0.07 0.09 0.07 0.06 0.05 0.03 0.02 0.02 0.04 0.03 0.03 0.05 0.08 0.09 0.12 0.16 0.21 0.24 0.26 0.23 0.19 0.18 0.17 0.15 0.12 0.09 0.09 0.08 0.08
0.32 0.31 0.28 0.21 0.15 0.19 0.17 0.15 0.09 0.09 0.08 0.08 0.07 0.05 0.04 0.04 0.06 0.06 0.04 0.03 0.02 0.04 0.05 0.04 0.05 0.06 0.08 0.11 0.13 0.16 0.18 0.19 0.18 0.18 0.17 0.15 0.13 0.11 0.10 0.09 0.08 0.07 0.06 0.05
0.18 0.18 0.20 0.18 0.20 0.18 0.15 0.10 0.12 0.14 0.08 0.07 0.09 0.08 0.08 0.05 0.04 0.04 0.04 0.03 0.03 0.03 0.08 0.12 0.11 0.12 0.15 0.17 0.19 0.19 0.18 0.16 0.14 0.12 0.11 0.08 0.08 0.07 0.06 0.04 0.04 0.03 0.03 0.03
0.21 0.19 0.16 0.17 0.17 0.13 0.11 0.09 0.08 0.08 0.08 0.08 0.10 0.10 0.08 0.06 0.04 0.03 0.03 0.04 0.05 0.08 0.11 0.13 0.14 0.15 0.16 0.15 0.14 0.12 0.10 0.09 0.08 0.06 0.04 0.04 0.03 0.03 0.02 0.02 0.02 0.02 0.02 0.02

GFSNGP_prec_precacc_057.txt.gz
Total_Precipitation_Accumulation
0.00 0.00 0.00 0.00 0.00 0.00 0.00 0.00 0.01 0.00 0.00 0.00 0.00 0.00 0.00 0.00 0.00 0.00 0.00 0.00 0.00 0.01 0.01 0.01 0.05 0.06 0.04 0.07 0.12 0.16 0.15 0.17 0.14 0.23 0.17 0.15 0.11 0.13 0.15 0.18 0.25 0.21 0.21 0.12
0.00 0.00 0.00 0.00 0.00 0.00 0.00 0.00 0.00 0.00 0.00 0.00 0.00 0.00 0.00 0.00 0.00 0.00 0.00 0.00 0.00 0.00 0.01 0.01 0.01 0.01 0.02 0.03 0.06 0.05 0.05 0.09 0.07 0.10 0.10 0.11 0.06 0.06 0.09 0.11 0.13 0.18 0.22 0.24
0.01 0.00 0.00 0.00 0.00 0.00 0.00 0.00 0.00 0.00 0.00 0.00 0.00 0.00 0.00 0.00 0.00 0.00 0.00 0.00 0.00 0.00 0.00 0.01 0.01 0.00 0.01 0.01 0.01 0.02 0.05 0.04 0.05 0.06 0.08 0.06 0.09 0.06 0.08 0.12 0.10 0.13 0.18 0.28
0.06 0.01 0.05 0.02 0.00 0.00 0.00 0.00 0.00 0.00 0.00 0.00 0.00 0.00 0.00 0.00 0.00 0.00 0.00 0.00 0.00 0.00 0.00 0.00 0.00 0.00 0.00 0.00 0.00 0.01 0.03 0.04 0.04 0.05 0.06 0.07 0.07 0.09 0.11 0.12 0.20 0.24 0.26 0.24
0.14 0.08 0.04 0.00 0.00 0.00 0.00 0.00 0.00 0.00 0.00 0.00 0.00 0.00 0.00 0.00 0.00 0.00 0.00 0.00 0.00 0.00 0.00 0.00 0.00 0.00 0.00 0.00 0.01 0.01 0.02 0.02 0.04 0.06 0.06 0.06 0.08 0.13 0.22 0.28 0.27 0.22 0.13 0.11
0.19 0.16 0.10 0.01 0.00 0.00 0.00 0.01 0.00 0.00 0.00 0.00 0.00 0.00 0.00 0.00 0.00 0.00 0.00 0.00 0.00 0.00 0.00 0.00 0.00 0.00 0.01 0.01 0.01 0.01 0.01 0.01 0.02 0.03 0.05 0.10 0.21 0.24 0.19 0.13 0.09 0.08 0.10 0.10
0.21 0.20 0.06 0.01 0.01 0.00 0.03 0.04 0.00 0.00 0.00 0.00 0.00 0.00 0.00 0.00 0.00 0.00 0.00 0.00 0.00 0.00 0.00 0.00 0.00 0.00 0.00 0.00 0.00 0.00 0.01 0.02 0.06 0.10 0.17 0.20 0.15 0.08 0.06 0.05 0.05 0.04 0.04 0.03
0.24 0.22 0.06 0.02 0.06 0.09 0.08 0.01 0.00 0.00 0.00 0.00 0.00 0.00 0.00 0.00 0.00 0.00 0.00 0.00 0.00 0.00 0.00 0.00 0.00 0.00 0.01 0.00 0.01 0.02 0.06 0.11 0.17 0.21 0.19 0.13 0.08 0.07 0.06 0.04 0.04 0.04 0.04 0.04
0.10 0.06 0.02 0.02 0.06 0.04 0.01 0.01 0.01 0.01 0.00 0.00 0.00 0.00 0.00 0.00 0.00 0.00 0.00 0.00 0.00 0.00 0.00 0.00 0.00 0.00 0.01 0.04 0.07 0.09 0.12 0.15 0.17 0.13 0.07 0.05 0.05 0.06 0.06 0.06 0.07 0.08 0.07 0.09
0.08 0.02 0.03 0.03 0.02 0.01 0.00 0.01 0.01 0.00 0.00 0.00 0.00 0.00 0.01 0.02 0.01 0.01 0.01 0.01 0.00 0.00 0.00 0.02 0.04 0.05 0.07 0.09 0.07 0.06 0.06 0.09 0.06 0.05 0.08 0.05 0.05 0.05 0.06 0.06 0.07 0.07 0.06 0.07
0.03 0.01 0.02 0.03 0.12 0.09 0.04 0.02 0.02 0.02 0.03 0.02 0.03 0.03 0.05 0.07 0.07 0.06 0.06 0.06 0.04 0.04 0.07 0.07 0.06 0.07 0.08 0.08 0.10 0.12 0.08 0.07 0.06 0.06 0.06 0.05 0.05 0.08 0.05 0.06 0.08 0.05 0.05 0.07
0.05 0.04 0.01 0.02 0.03 0.03 0.08 0.10 0.04 0.04 0.04 0.08 0.12 0.07 0.05 0.06 0.08 0.15 0.22 0.21 0.18 0.16 0.12 0.12 0.13 0.17 0.17 0.15 0.14 0.14 0.11 0.10 0.11 0.09 0.07 0.07 0.05 0.08 0.13 0.13 0.13 0.12 0.13 0.12
0.02 0.01 0.03 0.02 0.03 0.05 0.02 0.05 0.06 0.05 0.05 0.04 0.03 0.02 0.03 0.08 0.13 0.20 0.23 0.29 0.35 0.33 0.30 0.31 0.33 0.33 0.28 0.24 0.17 0.14 0.13 0.10 0.12 0.15 0.13 0.13 0.12 0.11 0.16 0.27 0.29 0.32 0.31 0.27
0.02 0.02 0.05 0.03 0.03 0.03 0.03 0.02 0.01 0.01 0.01 0.01 0.00 0.01 0.08 0.21 0.25 0.19 0.16 0.15 0.16 0.23 0.37 0.47 0.54 0.61 0.73 0.64 0.46 0.47 0.49 0.51 0.47 0.49 0.52 0.52 0.47 0.47 0.43 0.42 0.41 0.39 0.32 0.21
0.06 0.07 0.08 0.06 0.03 0.02 0.01 0.01 0.01 0.00 0.00 0.02 0.10 0.26 0.29 0.17 0.09 0.05 0.05 0.10 0.15 0.20 0.31 0.42 0.53 0.72 0.89 1.03 1.11 1.14 1.17 1.21 1.16 1.09 0.97 0.77 0.58 0.47 0.41 0.39 0.35 0.34 0.31 0.29
0.00 0.00 0.01 0.02 0.02 0.01 0.00 0.01 0.00 0.01 0.05 0.17 0.25 0.15 0.06 0.03 0.04 0.06 0.07 0.07 0.08 0.14 0.21 0.25 0.37 0.61 0.71 0.81 0.88 0.91 0.85 0.75 0.61 0.53 0.51 0.49 0.46 0.40 0.37 0.35 0.33 0.31 0.29 0.26
0.02 0.02 0.02 0.02 0.02 0.01 0.02 0.03 0.04 0.08 0.09 0.08 0.06 0.05 0.04 0.05 0.06 0.12 0.22 0.30 0.36 0.51 0.63 0.67 0.90 0.94 0.86 0.75 0.62 0.60 0.55 0.53 0.48 0.43 0.39 0.35 0.31 0.27 0.24 0.23 0.22 0.19 0.19 0.15
0.16 0.17 0.18 0.17 0.13 0.09 0.11 0.14 0.13 0.12 0.15 0.16 0.17 0.18 0.21 0.25 0.35 0.48 0.62 0.64 0.65 0.77 0.93 0.98 0.87 0.76 0.68 0.61 0.49 0.41 0.35 0.31 0.26 0.22 0.20 0.19 0.17 0.16 0.16 0.16 0.13 0.13 0.12 0.11
0.20 0.20 0.23 0.23 0.23 0.20 0.18 0.17 0.17 0.20 0.25 0.29 0.32 0.47 0.56 0.72 0.80 0.94 0.99 0.87 0.83 0.74 0.91 0.71 0.55 0.39 0.34 0.28 0.20 0.17 0.16 0.14 0.12 0.11 0.12 0.12 0.12 0.12 0.14 0.16 0.18 0.19 0.18 0.15
0.28 0.30 0.27 0.27 0.25 0.23 0.23 0.32 0.34 0.47 0.70 0.71 0.79 0.91 0.98 1.12 1.04 0.93 0.77 0.68 0.66 0.61 0.51 0.38 0.27 0.20 0.16 0.14 0.10 0.09 0.10 0.09 0.09 0.10 0.10 0.11 0.12 0.10 0.11 0.12 0.15 0.19 0.21 0.21
0.43 0.45 0.51 0.55 0.67 0.78 0.85 0.96 0.80 0.89 1.11 0.99 0.80 0.86 0.80 0.83 0.72 0.61 0.44 0.38 0.48 0.34 0.26 0.21 0.16 0.13 0.09 0.07 0.06 0.07 0.07 0.07 0.07 0.08 0.11 0.13 0.16 0.16 0.18 0.19 0.20 0.21 0.21 0.22
0.91 0.86 0.94 0.91 0.73 0.88 0.98 0.91 0.74 0.74 0.73 0.69 0.64 0.60 0.49 0.51 0.44 0.36 0.33 0.28 0.30 0.19 0.13 0.10 0.07 0.05 0.04 0.03 0.04 0.05 0.06 0.09 0.11 0.14 0.17 0.18 0.23 0.26 0.29 0.29 0.31 0.30 0.34 0.34
0.90 0.79 0.73 0.68 0.59 0.62 0.61 0.55 0.55 0.44 0.42 0.41 0.37 0.34 0.27 0.27 0.22 0.15 0.17 0.16 0.09 0.07 0.05 0.05 0.03 0.01 0.02 0.06 0.08 0.10 0.12 0.15 0.16 0.19 0.26 0.32 0.34 0.32 0.27 0.23 0.20 0.18 0.18 0.17
0.54 0.47 0.45 0.44 0.29 0.18 0.22 0.29 0.20 0.17 0.15 0.15 0.14 0.13 0.10 0.07 0.09 0.07 0.06 0.05 0.03 0.02 0.02 0.04 0.03 0.03 0.05 0.08 0.09 0.12 0.16 0.21 0.24 0.26 0.24 0.19 0.18 0.17 0.16 0.13 0.09 0.09 0.09 0.08
0.33 0.31 0.28 0.21 0.15 0.19 0.17 0.15 0.09 0.09 0.08 0.08 0.07 0.05 0.04 0.04 0.06 0.06 0.04 0.03 0.02 0.04 0.05 0.04 0.05 0.06 0.09 0.11 0.14 0.16 0.19 0.19 0.18 0.19 0.17 0.15 0.14 0.12 0.10 0.09 0.08 0.08 0.06 0.06
0.18 0.18 0.20 0.18 0.20 0.18 0.15 0.10 0.12 0.14 0.08 0.08 0.09 0.08 0.08 0.05 0.05 0.04 0.04 0.03 0.03 0.03 0.08 0.12 0.11 0.12 0.15 0.18 0.19 0.19 0.19 0.16 0.14 0.13 0.11 0.09 0.08 0.07 0.06 0.04 0.04 0.03 0.03 0.03
0.21 0.19 0.16 0.17 0.17 0.13 0.11 0.09 0.08 0.08 0.08 0.09 0.11 0.11 0.08 0.06 0.05 0.03 0.03 0.04 0.05 0.08 0.11 0.13 0.15 0.15 0.16 0.15 0.14 0.12 0.10 0.09 0.08 0.06 0.05 0.04 0.04 0.03 0.03 0.02 0.02 0.02 0.02 0.03

GFSNGP_prec_precacc_063.txt.gz
Total_Precipitation_Accumulation
0.00 0.00 0.03 0.04 0.01 0.01 0.02 0.03 0.09 0.03 0.09 0.12 0.10 0.01 0.00 0.00 0.00 0.00 0.00 0.00 0.00 0.01 0.01 0.01 0.05 0.07 0.07 0.10 0.15 0.22 0.22 0.19 0.14 0.23 0.17 0.15 0.11 0.13 0.15 0.18 0.25 0.21 0.21 0.12
0.00 0.00 0.00 0.00 0.01 0.06 0.03 0.01 0.03 0.04 0.08 0.06 0.10 0.05 0.01 0.00 0.00 0.00 0.00 0.00 0.00 0.00 0.01 0.01 0.01 0.01 0.02 0.04 0.08 0.08 0.06 0.11 0.11 0.11 0.10 0.11 0.06 0.06 0.09 0.11 0.13 0.18 0.22 0.24
0.06 0.00 0.00 0.00 0.00 0.01 0.06 0.03 0.02 0.05 0.01 0.01 0.01 0.01 0.00 0.00 0.00 0.00 0.00 0.00 0.00 0.00 0.00 0.01 0.01 0.00 0.01 0.01 0.01 0.02 0.05 0.05 0.06 0.07 0.09 0.06 0.09 0.07 0.08 0.12 0.10 0.13 0.19 0.28
0.13 0.05 0.07 0.02 0.00 0.00 0.00 0.02 0.00 0.00 0.00 0.00 0.00 0.00 0.00 0.00 0.00 0.00 0.00 0.00 0.00 0.00 0.00 0.00 0.00 0.00 0.00 0.00 0.00 0.01 0.03 0.04 0.04 0.05 0.06 0.08 0.09 0.10 0.11 0.12 0.20 0.24 0.26 0.25
0.19 0.17 0.07 0.01 0.00 0.00 0.00 0.00 0.00 0.00 0.00 0.00 0.00 0.00 0.00 0.00 0.00 0.00 0.00 0.00 0.00 0.00 0.00 0.00 0.00 0.00 0.00 0.00 0.01 0.01 0.02 0.02 0.04 0.06 0.06 0.06 0.09 0.14 0.22 0.28 0.27 0.22 0.15 0.11
0.22 0.20 0.11 0.02 0.00 0.00 0.00 0.02 0.00 0.00 0.00 0.00 0.00 0.00 0.00 0.00 0.00 0.00 0.00 0.00 0.00 0.00 0.00 0.00 0.00 0.00 0.01 0.01 0.01 0.01 0.01 0.01 0.02 0.03 0.05 0.10 0.21 0.24 0.19 0.13 0.09 0.09 0.10 0.10
0.23 0.23 0.07 0.01 0.01 0.00 0.04 0.09 0.00 0.00 0.00 0.00 0.00 0.00 0.00 0.00 0.00 0.00 0.00 0.00 0.00 0.00 0.00 0.00 0.00 0.00 0.00 0.00 0.00 0.00 0.01 0.02 0.06 0.10 0.17 0.20 0.15 0.09 0.06 0.06 0.05 0.05 0.05 0.05
0.26 0.24 0.07 0.02 0.06 0.12 0.14 0.03 0.00 0.00 0.00 0.00 0.00 0.00 0.00 0.00 0.00 0.00 0.00 0.00 0.00 0.00 0.00 0.00 0.00 0.00 0.01 0.00 0.01 0.02 0.06 0.11 0.17 0.21 0.19 0.13 0.09 0.09 0.09 0.07 0.08 0.08 0.07 0.06
0.10 0.07 0.04 0.05 0.09 0.08 0.03 0.02 0.01 0.01 0.00 0.00 0.00 0.00 0.00 0.00 0.00 0.00 0.00 0.00 0.00 0.00 0.00 0.00 0.00 0.00 0.01 0.04 0.07 0.09 0.12 0.15 0.17 0.13 0.07 0.05 0.08 0.11 0.12 0.11 0.12 0.13 0.11 0.12
0.15 0.11 0.11 0.19 0.15 0.02 0.01 0.02 0.01 0.00 0.00 0.00 0.00 0.00 0.01 0.02 0.01 0.01 0.01 0.01 0.00 0.00 0.00 0.02 0.04 0.05 0.07 0.09 0.07 0.06 0.06 0.10 0.07 0.06 0.09 0.05 0.09 0.11 0.11 0.11 0.15 0.17 0.19 0.22
0.18 0.21 0.18 0.30 0.48 0.19 0.06 0.02 0.02 0.02 0.03 0.02 0.03 0.03 0.05 0.07 0.07 0.06 0.06 0.06 0.04 0.04 0.07 0.08 0.06 0.07 0.08 0.08 0.10 0.13 0.11 0.11 0.11 0.11 0.12 0.11 0.12 0.19 0.17 0.23 0.33 0.34 0.36 0.35
0.26 0.47 0.33 0.48 0.24 0.17 0.14 0.10 0.04 0.04 0.04 0.08 0.12 0.07 0.05 0.06 0.08 0.15 0.22 0.21 0.18 0.16 0.13 0.12 0.14 0.19 0.19 0.18 0.16 0.17 0.16 0.18 0.22 0.17 0.17 0.18 0.16 0.24 0.40 0.44 0.43 0.48 0.53 0.52
0.15 0.22 0.16 0.10 0.09 0.06 0.03 0.05 0.06 0.05 0.05 0.04 0.03 0.02 0.03 0.08 0.13 0.20 0.23 0.29 0.35 0.34 0.31 0.32 0.35 0.37 0.36 0.37 0.32 0.30 0.30 0.27 0.28 0.30 0.32 0.34 0.34 0.31 0.41 0.58 0.63 0.75 0.80 0.79
0.03 0.03 0.05 0.03 0.03 0.03 0.03 0.02 0.01 0.01 0.01 0.01 0.00 0.01 0.08 0.21 0.25 0.20 0.17 0.17 0.17 0.24 0.38 0.48 0.55 0.66 0.83 0.87 0.87 0.92 0.96 0.97 0.88 0.86 0.92 1.04 1.15 1.24 1.26 1.25 1.24 1.28 1.21 1.03
0.06 0.07 0.08 0.06 0.03 0.02 0.01 0.01 0.01 0.00 0.00 0.02 0.10 0.26 0.29 0.18 0.10 0.06 0.06 0.11 0.16 0.20 0.32 0.44 0.55 0.80 0.99 1.17 1.34 1.53 1.64 1.77 1.75 1.69 1.60 1.41 1.24 1.12 1.07 1.06 1.04 1.05 1.00 0.89
0.00 0.00 0.01 0.02 0.02 0.01 0.00 0.01 0.00 0.01 0.05 0.17 0.25 0.15 0.06 0.04 0.06 0.09 0.10 0.09 0.10 0.16 0.23 0.27 0.40 0.69 0.79 0.89 0.99 1.07 1.07 1.01 0.89 0.84 0.81 0.76 0.72 0.66 0.62 0.58 0.54 0.52 0.48 0.44
0.02 0.02 0.02 0.02 0.02 0.01 0.02 0.03 0.04 0.08 0.10 0.09 0.08 0.07 0.06 0.06 0.07 0.14 0.25 0.33 0.39 0.54 0.66 0.71 0.96 1.01 0.93 0.82 0.69 0.69 0.65 0.65 0.60 0.55 0.53 0.49 0.44 0.39 0.34 0.32 0.29 0.26 0.25 0.19
0.16 0.18 0.18 0.17 0.13 0.09 0.12 0.14 0.14 0.13 0.16 0.17 0.19 0.19 0.22 0.27 0.37 0.51 0.65 0.68 0.68 0.80 0.96 1.02 0.91 0.80 0.72 0.64 0.53 0.46 0.38 0.34 0.29 0.25 0.23 0.22 0.20 0.19 0.19 0.18 0.15 0.14 0.13 0.11
0.21 0.20 0.24 0.24 0.24 0.21 0.19 0.18 0.19 0.22 0.27 0.31 0.34 0.50 0.60 0.76 0.85 0.99 1.04 0.91 0.87 0.77 0.92 0.72 0.55 0.40 0.34 0.28 0.20 0.17 0.16 0.14 0.12 0.12 0.12 0.12 0.12 0.12 0.14 0.17 0.19 0.19 0.18 0.15
0.28 0.30 0.27 0.28 0.26 0.24 0.25 0.34 0.36 0.49 0.73 0.74 0.81 0.94 1.01 1.16 1.08 0.96 0.79 0.70 0.67 0.61 0.51 0.38 0.27 0.20 0.16 0.14 0.10 0.09 0.10 0.09 0.09 0.10 0.10 0.11 0.12 0.11 0.11 0.12 0.16 0.20 0.22 0.22
0.45 0.46 0.52 0.56 0.68 0.79 0.86 0.97 0.81 0.91 1.13 1.01 0.82 0.88 0.81 0.85 0.73 0.61 0.44 0.39 0.48 0.34 0.26 0.21 0.16 0.13 0.09 0.07 0.06 0.07 0.07 0.07 0.07 0.08 0.11 0.13 0.16 0.16 0.18 0.19 0.20 0.21 0.22 0.23
0.92 0.87 0.95 0.91 0.74 0.89 0.99 0.92 0.75 0.75 0.74 0.70 0.65 0.61 0.49 0.51 0.44 0.36 0.33 0.28 0.30 0.19 0.13 0.10 0.07 0.05 0.04 0.03 0.04 0.05 0.06 0.09 0.12 0.14 0.17 0.18 0.23 0.26 0.29 0.30 0.31 0.31 0.34 0.35
0.91 0.80 0.74 0.69 0.60 0.63 0.62 0.55 0.55 0.44 0.43 0.41 0.37 0.34 0.27 0.27 0.22 0.15 0.17 0.16 0.09 0.07 0.05 0.05 0.03 0.01 0.02 0.06 0.09 0.10 0.13 0.15 0.16 0.19 0.26 0.32 0.34 0.32 0.27 0.23 0.20 0.19 0.18 0.17
0.56 0.49 0.47 0.45 0.29 0.18 0.22 0.29 0.20 0.17 0.15 0.15 0.14 0.13 0.10 0.08 0.10 0.07 0.06 0.05 0.03 0.02 0.02 0.04 0.03 0.03 0.05 0.09 0.10 0.12 0.17 0.21 0.25 0.26 0.24 0.19 0.19 0.17 0.16 0.13 0.09 0.09 0.09 0.08
0.35 0.33 0.29 0.21 0.15 0.19 0.17 0.15 0.09 0.09 0.08 0.08 0.07 0.05 0.04 0.04 0.06 0.07 0.04 0.03 0.02 0.04 0.06 0.04 0.05 0.06 0.09 0.11 0.14 0.16 0.19 0.19 0.19 0.19 0.17 0.16 0.14 0.12 0.10 0.09 0.08 0.08 0.07 0.06
0.19 0.18 0.20 0.18 0.20 0.18 0.15 0.10 0.12 0.14 0.09 0.08 0.09 0.09 0.08 0.05 0.05 0.05 0.05 0.03 0.03 0.03 0.08 0.12 0.11 0.12 0.15 0.18 0.19 0.19 0.19 0.16 0.14 0.13 0.11 0.09 0.08 0.07 0.06 0.05 0.04 0.03 0.03 0.03
0.21 0.19 0.16 0.17 0.17 0.13 0.11 0.09 0.09 0.09 0.08 0.09 0.11 0.11 0.09 0.07 0.05 0.03 0.03 0.04 0.05 0.08 0.12 0.13 0.15 0.16 0.16 0.15 0.14 0.12 0.10 0.09 0.08 0.06 0.05 0.04 0.04 0.04 0.03 0.02 0.02 0.02 0.02 0.03

GFSNGP_prec_precacc_066.txt.gz
Total_Precipitation_Accumulation
0.00 0.00 0.03 0.07 0.06 0.03 0.04 0.04 0.10 0.04 0.10 0.17 0.27 0.27 0.03 0.00 0.00 0.00 0.00 0.00 0.00 0.01 0.01 0.01 0.05 0.08 0.08 0.11 0.17 0.25 0.24 0.22 0.20 0.28 0.21 0.17 0.11 0.13 0.15 0.18 0.25 0.21 0.21 0.12
0.00 0.00 0.00 0.01 0.01 0.10 0.07 0.03 0.04 0.05 0.11 0.14 0.27 0.23 0.04 0.00 0.00 0.00 0.00 0.00 0.00 0.00 0.01 0.01 0.01 0.01 0.02 0.04 0.08 0.08 0.07 0.15 0.17 0.13 0.16 0.16 0.13 0.12 0.12 0.11 0.13 0.19 0.22 0.24
0.06 0.00 0.00 0.00 0.00 0.03 0.08 0.07 0.11 0.15 0.05 0.09 0.15 0.25 0.06 0.00 0.00 0.00 0.00 0.00 0.00 0.00 0.00 0.01 0.01 0.00 0.01 0.01 0.01 0.02 0.05 0.05 0.06 0.07 0.09 0.09 0.15 0.13 0.12 0.13 0.15 0.14 0.20 0.29
0.13 0.05 0.07 0.02 0.00 0.00 0.02 0.05 0.05 0.08 0.09 0.08 0.03 0.04 0.04 0.00 0.00 0.00 0.00 0.00 0.00 0.00 0.00 0.00 0.00 0.00 0.00 0.00 0.00 0.01 0.03 0.04 0.04 0.05 0.06 0.09 0.10 0.10 0.12 0.16 0.23 0.26 0.29 0.27
0.19 0.17 0.08 0.01 0.00 0.00 0.02 0.03 0.04 0.05 0.06 0.02 0.01 0.00 0.00 0.00 0.00 0.00 0.00 0.00 0.00 0.00 0.00 0.00 0.00 0.00 0.00 0.00 0.01 0.01 0.02 0.02 0.04 0.06 0.06 0.06 0.09 0.14 0.24 0.30 0.29 0.24 0.17 0.16
0.23 0.21 0.12 0.02 0.00 0.00 0.01 0.05 0.01 0.01 0.01 0.00 0.00 0.00 0.00 0.00 0.00 0.00 0.00 0.00 0.00 0.00 0.00 0.00 0.00 0.00 0.01 0.01 0.01 0.01 0.01 0.01 0.02 0.03 0.05 0.10 0.21 0.24 0.20 0.15 0.11 0.12 0.12 0.12
0.23 0.23 0.07 0.01 0.01 0.01 0.05 0.13 0.01 0.00 0.00 0.00 0.00 0.00 0.00 0.00 0.00 0.00 0.00 0.00 0.00 0.00 0.00 0.00 0.00 0.00 0.00 0.00 0.00 0.00 0.01 0.02 0.06 0.10 0.17 0.20 0.15 0.09 0.06 0.06 0.06 0.07 0.08 0.08
0.27 0.25 0.07 0.02 0.06 0.13 0.15 0.03 0.01 0.00 0.00 0.00 0.00 0.00 0.00 0.00 0.00 0.00 0.00 0.00 0.00 0.00 0.00 0.00 0.00 0.00 0.01 0.00 0.01 0.02 0.06 0.11 0.17 0.21 0.19 0.13 0.09 0.09 0.09 0.07 0.08 0.09 0.09 0.10
0.11 0.07 0.08 0.09 0.11 0.10 0.04 0.04 0.03 0.02 0.01 0.00 0.00 0.00 0.00 0.00 0.00 0.00 0.00 0.00 0.00 0.00 0.00 0.00 0.00 0.00 0.01 0.04 0.07 0.09 0.12 0.15 0.17 0.13 0.07 0.05 0.08 0.11 0.12 0.11 0.12 0.15 0.16 0.20
0.18 0.13 0.13 0.24 0.20 0.03 0.01 0.02 0.02 0.01 0.00 0.00 0.01 0.00 0.01 0.02 0.01 0.01 0.01 0.01 0.00 0.00 0.00 0.02 0.04 0.05 0.07 0.09 0.07 0.06 0.06 0.10 0.07 0.06 0.09 0.05 0.09 0.11 0.11 0.11 0.16 0.20 0.28 0.34
0.27 0.31 0.24 0.31 0.60 0.30 0.08 0.03 0.03 0.02 0.03 0.02 0.03 0.03 0.05 0.07 0.07 0.06 0.06 0.06 0.04 0.04 0.07 0.08 0.06 0.07 0.08 0.09 0.10 0.13 0.11 0.11 0.11 0.11 0.12 0.11 0.14 0.22 0.19 0.28 0.38 0.39 0.44 0.47
0.39 0.58 0.69 0.55 0.29 0.28 0.24 0.13 0.04 0.04 0.04 0.08 0.12 0.07 0.05 0.06 0.08 0.15 0.22 0.21 0.18 0.16 0.13 0.12 0.14 0.19 0.19 0.18 0.17 0.17 0.16 0.18 0.22 0.17 0.18 0.18 0.18 0.27 0.46 0.51 0.50 0.56 0.62 0.62
0.42 0.44 0.57 0.38 0.14 0.10 0.05 0.06 0.06 0.05 0.05 0.04 0.03 0.02 0.03 0.08 0.13 0.20 0.23 0.29 0.36 0.35 0.31 0.32 0.35 0.38 0.36 0.37 0.32 0.30 0.30 0.27 0.29 0.30 0.32 0.34 0.36 0.35 0.47 0.66 0.72 0.87 0.94 0.95
0.15 0.13 0.09 0.06 0.05 0.03 0.03 0.02 0.01 0.01 0.01 0.01 0.00 0.01 0.08 0.21 0.26 0.20 0.18 0.17 0.17 0.24 0.38 0.49 0.55 0.67 0.84 0.88 0.87 0.92 0.97 0.97 0.89 0.86 0.92 1.04 1.16 1.27 1.32 1.34 1.34 1.42 1.38 1.20
0.07 0.08 0.08 0.06 0.03 0.02 0.01 0.01 0.01 0.00 0.00 0.02 0.10 0.26 0.29 0.18 0.10 0.06 0.07 0.11 0.16 0.20 0.33 0.44 0.55 0.81 1.00 1.17 1.34 1.53 1.65 1.77 1.76 1.70 1.61 1.42 1.26 1.15 1.12 1.12 1.11 1.14 1.12 1.02
0.00 0.00 0.01 0.02 0.02 0.01 0.00 0.01 0.01 0.01 0.05 0.17 0.25 0.16 0.07 0.04 0.06 0.09 0.10 0.10 0.10 0.17 0.24 0.28 0.41 0.71 0.80 0.89 0.99 1.07 1.07 1.01 0.89 0.85 0.83 0.78 0.75 0.69 0.66 0.63 0.59 0.57 0.53 0.50
0.02 0.02 0.02 0.03 0.02 0.02 0.02 0.03 0.05 0.08 0.11 0.10 0.09 0.07 0.06 0.06 0.07 0.15 0.26 0.34 0.39 0.54 0.66 0.71 0.97 1.01 0.93 0.82 0.69 0.69 0.66 0.65 0.61 0.56 0.54 0.50 0.46 0.40 0.36 0.33 0.31 0.28 0.28 0.20
0.16 0.18 0.19 0.18 0.14 0.09 0.12 0.14 0.14 0.14 0.17 0.18 0.19 0.20 0.22 0.27 0.38 0.51 0.66 0.68 0.68 0.80 0.96 1.02 0.91 0.80 0.72 0.64 0.53 0.46 0.38 0.34 0.29 0.25 0.23 0.22 0.20 0.19 0.19 0.18 0.15 0.14 0.13 0.11
0.21 0.21 0.25 0.24 0.24 0.21 0.20 0.19 0.19 0.23 0.28 0.31 0.34 0.50 0.61 0.77 0.85 0.99 1.04 0.92 0.87 0.77 0.92 0.72 0.55 0.40 0.34 0.28 0.20 0.17 0.16 0.14 0.12 0.12 0.12 0.12 0.12 0.13 0.14 0.17 0.19 0.19 0.18 0.15
0.29 0.31 0.28 0.28 0.26 0.24 0.25 0.34 0.37 0.49 0.73 0.74 0.81 0.94 1.01 1.17 1.08 0.96 0.79 0.70 0.67 0.61 0.51 0.38 0.27 0.20 0.16 0.14 0.10 0.09 0.10 0.09 0.09 0.10 0.10 0.11 0.12 0.11 0.11 0.12 0.16 0.20 0.22 0.22
0.45 0.46 0.52 0.56 0.68 0.80 0.87 0.98 0.81 0.91 1.13 1.01 0.82 0.88 0.82 0.85 0.73 0.61 0.44 0.39 0.48 0.34 0.26 0.21 0.16 0.13 0.09 0.07 0.06 0.07 0.07 0.07 0.07 0.08 0.11 0.13 0.16 0.17 0.18 0.20 0.21 0.21 0.22 0.23
0.93 0.87 0.95 0.91 0.74 0.90 0.99 0.93 0.75 0.75 0.74 0.70 0.65 0.61 0.49 0.51 0.44 0.36 0.33 0.28 0.30 0.19 0.13 0.10 0.07 0.05 0.04 0.03 0.04 0.05 0.06 0.09 0.12 0.14 0.17 0.18 0.23 0.26 0.29 0.30 0.31 0.31 0.34 0.35
0.92 0.80 0.75 0.69 0.60 0.63 0.62 0.55 0.55 0.44 0.43 0.41 0.37 0.34 0.27 0.27 0.22 0.15 0.17 0.16 0.09 0.07 0.05 0.05 0.03 0.01 0.02 0.06 0.09 0.10 0.13 0.15 0.16 0.19 0.26 0.32 0.34 0.32 0.27 0.23 0.20 0.19 0.18 0.17
0.56 0.49 0.47 0.45 0.30 0.18 0.22 0.29 0.20 0.17 0.15 0.15 0.14 0.13 0.10 0.08 0.10 0.07 0.06 0.05 0.03 0.02 0.02 0.04 0.03 0.03 0.05 0.09 0.10 0.12 0.17 0.21 0.25 0.27 0.24 0.19 0.19 0.17 0.16 0.13 0.09 0.09 0.09 0.08
0.36 0.34 0.29 0.22 0.15 0.19 0.17 0.15 0.09 0.09 0.08 0.08 0.07 0.05 0.04 0.04 0.06 0.07 0.04 0.03 0.02 0.04 0.06 0.04 0.05 0.06 0.09 0.11 0.14 0.16 0.19 0.19 0.19 0.19 0.17 0.16 0.14 0.12 0.10 0.09 0.08 0.08 0.07 0.06
0.19 0.18 0.20 0.18 0.20 0.18 0.15 0.11 0.13 0.15 0.09 0.08 0.09 0.09 0.08 0.05 0.05 0.05 0.05 0.03 0.03 0.03 0.09 0.12 0.11 0.12 0.15 0.18 0.19 0.19 0.19 0.16 0.14 0.13 0.11 0.09 0.08 0.08 0.06 0.05 0.04 0.03 0.03 0.03
0.21 0.19 0.16 0.17 0.17 0.13 0.11 0.10 0.09 0.09 0.09 0.09 0.11 0.11 0.09 0.07 0.05 0.03 0.03 0.04 0.05 0.08 0.12 0.14 0.15 0.16 0.16 0.15 0.14 0.12 0.10 0.09 0.08 0.06 0.05 0.04 0.04 0.04 0.03 0.02 0.02 0.02 0.02 0.03

GFSNGP_prec_precacc_069.txt.gz
Total_Precipitation_Accumulation
0.00 0.00 0.03 0.08 0.08 0.06 0.07 0.05 0.12 0.04 0.10 0.23 0.50 0.57 0.15 0.01 0.00 0.00 0.00 0.00 0.01 0.02 0.02 0.02 0.06 0.10 0.09 0.12 0.17 0.25 0.24 0.22 0.21 0.29 0.23 0.19 0.13 0.14 0.16 0.18 0.25 0.21 0.21 0.12
0.00 0.00 0.00 0.01 0.01 0.11 0.12 0.06 0.06 0.05 0.12 0.18 0.36 0.44 0.27 0.16 0.03 0.00 0.00 0.00 0.00 0.00 0.01 0.01 0.01 0.01 0.02 0.04 0.08 0.08 0.07 0.15 0.17 0.13 0.16 0.18 0.16 0.19 0.16 0.13 0.16 0.20 0.23 0.24
0.06 0.00 0.00 0.00 0.00 0.03 0.10 0.13 0.22 0.22 0.07 0.11 0.16 0.35 0.18 0.21 0.14 0.06 0.01 0.00 0.00 0.00 0.00 0.01 0.01 0.00 0.01 0.01 0.01 0.02 0.05 0.05 0.06 0.07 0.09 0.09 0.16 0.14 0.13 0.16 0.20 0.16 0.23 0.32
0.13 0.05 0.07 0.02 0.00 0.00 0.02 0.06 0.08 0.12 0.14 0.18 0.06 0.12 0.21 0.05 0.17 0.11 0.04 0.01 0.00 0.00 0.00 0.00 0.00 0.00 0.00 0.00 0.00 0.01 0.03 0.04 0.04 0.05 0.06 0.09 0.10 0.10 0.13 0.18 0.25 0.28 0.31 0.28
0.19 0.17 0.08 0.01 0.00 0.00 0.03 0.04 0.04 0.06 0.10 0.09 0.08 0.04 0.10 0.02 0.03 0.06 0.03 0.01 0.00 0.00 0.00 0.00 0.00 0.00 0.00 0.00 0.01 0.01 0.02 0.02 0.04 0.06 0.06 0.06 0.09 0.14 0.24 0.30 0.30 0.26 0.19 0.18
0.23 0.21 0.12 0.02 0.00 0.00 0.01 0.06 0.01 0.01 0.06 0.10 0.01 0.01 0.05 0.06 0.06 0.04 0.01 0.00 0.00 0.00 0.00 0.00 0.00 0.00 0.01 0.01 0.01 0.01 0.01 0.01 0.02 0.03 0.05 0.10 0.21 0.24 0.20 0.15 0.11 0.12 0.13 0.13
0.23 0.23 0.07 0.01 0.01 0.01 0.08 0.15 0.01 0.00 0.01 0.03 0.01 0.00 0.00 0.01 0.02 0.02 0.00 0.00 0.00 0.00 0.00 0.00 0.00 0.00 0.00 0.00 0.00 0.00 0.01 0.02 0.06 0.10 0.17 0.20 0.15 0.09 0.06 0.06 0.06 0.07 0.08 0.08
0.27 0.25 0.07 0.02 0.06 0.14 0.19 0.05 0.02 0.01 0.01 0.01 0.02 0.00 0.00 0.00 0.00 0.00 0.00 0.00 0.00 0.00 0.00 0.00 0.00 0.00 0.01 0.00 0.01 0.02 0.06 0.11 0.17 0.21 0.19 0.13 0.09 0.09 0.09 0.07 0.08 0.09 0.09 0.11
0.11 0.07 0.08 0.09 0.11 0.10 0.04 0.11 0.07 0.19 0.14 0.10 0.10 0.08 0.03 0.01 0.00 0.00 0.00 0.00 0.00 0.00 0.00 0.00 0.00 0.00 0.01 0.04 0.07 0.09 0.12 0.15 0.17 0.13 0.07 0.05 0.08 0.11 0.12 0.11 0.13 0.15 0.17 0.21
0.24 0.16 0.13 0.24 0.22 0.04 0.01 0.02 0.02 0.05 0.20 0.12 0.11 0.06 0.03 0.02 0.01 0.01 0.01 0.01 0.00 0.00 0.00 0.02 0.04 0.05 0.07 0.09 0.07 0.06 0.06 0.10 0.07 0.06 0.09 0.05 0.09 0.11 0.11 0.12 0.16 0.21 0.29 0.35
0.37 0.36 0.25 0.33 0.61 0.33 0.11 0.05 0.04 0.02 0.03 0.02 0.03 0.03 0.05 0.07 0.07 0.06 0.06 0.06 0.04 0.04 0.07 0.08 0.07 0.08 0.08 0.09 0.10 0.13 0.11 0.11 0.11 0.11 0.12 0.11 0.14 0.23 0.20 0.31 0.40 0.41 0.47 0.50
0.48 0.74 0.79 0.76 0.37 0.32 0.42 0.23 0.07 0.04 0.04 0.08 0.12 0.07 0.05 0.06 0.08 0.15 0.22 0.21 0.18 0.17 0.13 0.13 0.15 0.19 0.19 0.18 0.17 0.17 0.16 0.18 0.22 0.17 0.18 0.18 0.18 0.27 0.46 0.52 0.51 0.58 0.65 0.67
0.62 0.63 0.73 0.60 0.26 0.11 0.07 0.14 0.14 0.07 0.05 0.04 0.03 0.02 0.03 0.08 0.13 0.20 0.23 0.29 0.36 0.35 0.32 0.32 0.36 0.38 0.37 0.37 0.32 0.30 0.30 0.27 0.29 0.30 0.32 0.34 0.36 0.35 0.47 0.66 0.72 0.88 0.97 0.99
0.29 0.26 0.10 0.07 0.06 0.03 0.03 0.02 0.01 0.01 0.01 0.01 0.00 0.01 0.08 0.21 0.26 0.20 0.18 0.18 0.17 0.24 0.38 0.49 0.56 0.68 0.84 0.88 0.87 0.92 0.97 0.97 0.89 0.86 0.92 1.04 1.17 1.27 1.32 1.34 1.35 1.43 1.40 1.23
0.07 0.08 0.08 0.06 0.03 0.02 0.01 0.01 0.01 0.00 0.00 0.02 0.10 0.26 0.29 0.18 0.10 0.07 0.07 0.12 0.16 0.20 0.33 0.44 0.56 0.82 1.01 1.17 1.34 1.53 1.65 1.77 1.76 1.70 1.61 1.42 1.26 1.15 1.12 1.12 1.11 1.15 1.13 1.04
0.00 0.00 0.01 0.02 0.02 0.01 0.00 0.01 0.01 0.01 0.05 0.17 0.25 0.16 0.07 0.04 0.06 0.09 0.10 0.10 0.10 0.17 0.24 0.28 0.41 0.72 0.80 0.89 0.99 1.07 1.07 1.01 0.89 0.85 0.83 0.78 0.75 0.69 0.66 0.63 0.60 0.57 0.54 0.52
0.02 0.03 0.02 0.03 0.02 0.02 0.02 0.03 0.05 0.09 0.11 0.10 0.09 0.07 0.06 0.06 0.07 0.15 0.26 0.34 0.39 0.54 0.66 0.71 0.97 1.01 0.93 0.82 0.69 0.69 0.66 0.65 0.61 0.56 0.54 0.50 0.46 0.40 0.36 0.33 0.31 0.28 0.28 0.20
0.16 0.18 0.19 0.18 0.14 0.09 0.12 0.15 0.15 0.14 0.17 0.18 0.19 0.20 0.23 0.28 0.38 0.52 0.66 0.68 0.68 0.80 0.96 1.02 0.91 0.80 0.72 0.64 0.53 0.46 0.38 0.34 0.29 0.25 0.23 0.22 0.20 0.19 0.19 0.18 0.15 0.14 0.13 0.11
0.21 0.21 0.25 0.24 0.24 0.21 0.20 0.19 0.20 0.23 0.28 0.31 0.34 0.50 0.61 0.77 0.85 0.99 1.04 0.92 0.87 0.77 0.93 0.72 0.55 0.40 0.34 0.28 0.20 0.17 0.16 0.14 0.12 0.12 0.12 0.12 0.12 0.13 0.14 0.17 0.19 0.19 0.18 0.15
0.29 0.31 0.28 0.28 0.26 0.24 0.26 0.35 0.37 0.49 0.73 0.74 0.82 0.94 1.01 1.17 1.08 0.96 0.79 0.70 0.68 0.62 0.51 0.38 0.27 0.20 0.16 0.14 0.10 0.09 0.10 0.09 0.09 0.10 0.10 0.11 0.12 0.11 0.11 0.12 0.16 0.20 0.22 0.22
0.46 0.47 0.52 0.56 0.68 0.80 0.87 0.98 0.81 0.91 1.13 1.01 0.82 0.88 0.82 0.85 0.73 0.61 0.44 0.39 0.48 0.34 0.26 0.21 0.16 0.13 0.09 0.07 0.06 0.07 0.07 0.07 0.07 0.08 0.11 0.13 0.16 0.17 0.18 0.20 0.21 0.21 0.22 0.23
0.93 0.87 0.96 0.92 0.75 0.90 1.00 0.93 0.76 0.75 0.74 0.70 0.65 0.61 0.49 0.51 0.44 0.36 0.33 0.28 0.30 0.19 0.13 0.10 0.07 0.05 0.04 0.03 0.04 0.05 0.06 0.09 0.12 0.14 0.17 0.18 0.23 0.26 0.29 0.30 0.31 0.31 0.34 0.35
0.93 0.81 0.76 0.70 0.61 0.64 0.63 0.56 0.55 0.44 0.43 0.41 0.37 0.34 0.27 0.27 0.22 0.15 0.17 0.16 0.09 0.07 0.05 0.05 0.03 0.01 0.02 0.06 0.09 0.10 0.13 0.15 0.16 0.19 0.26 0.32 0.34 0.32 0.27 0.23 0.20 0.19 0.18 0.17
0.57 0.50 0.48 0.46 0.30 0.18 0.22 0.29 0.20 0.17 0.15 0.15 0.14 0.13 0.10 0.08 0.10 0.07 0.06 0.05 0.03 0.02 0.02 0.04 0.03 0.03 0.05 0.09 0.10 0.12 0.17 0.21 0.25 0.27 0.24 0.19 0.19 0.17 0.16 0.13 0.09 0.09 0.09 0.08
0.38 0.35 0.30 0.22 0.15 0.19 0.17 0.15 0.09 0.09 0.08 0.08 0.07 0.05 0.04 0.04 0.06 0.07 0.04 0.03 0.02 0.04 0.06 0.04 0.05 0.06 0.09 0.11 0.14 0.16 0.19 0.19 0.19 0.19 0.17 0.16 0.14 0.12 0.10 0.09 0.08 0.08 0.07 0.06
0.20 0.19 0.20 0.18 0.20 0.18 0.15 0.11 0.13 0.15 0.09 0.08 0.09 0.09 0.08 0.05 0.05 0.05 0.05 0.03 0.03 0.03 0.09 0.12 0.11 0.12 0.15 0.18 0.19 0.19 0.19 0.16 0.14 0.13 0.11 0.09 0.08 0.08 0.06 0.05 0.04 0.03 0.03 0.03
0.21 0.19 0.16 0.17 0.17 0.13 0.11 0.10 0.10 0.09 0.09 0.09 0.11 0.11 0.09 0.07 0.05 0.03 0.03 0.04 0.05 0.08 0.12 0.14 0.15 0.16 0.16 0.15 0.14 0.12 0.10 0.09 0.08 0.06 0.05 0.04 0.04 0.04 0.03 0.02 0.02 0.02 0.02 0.03

GFSNGP_prec_precacc_075.txt.gz
Total_Precipitation_Accumulation
0.00 0.00 0.03 0.08 0.08 0.07 0.16 0.23 0.32 0.10 0.13 0.30 0.78 0.83 0.41 0.05 0.00 0.01 0.02 0.03 0.08 0.10 0.10 0.11 0.18 0.22 0.19 0.19 0.23 0.28 0.25 0.24 0.22 0.30 0.24 0.21 0.14 0.15 0.17 0.18 0.26 0.21 0.21 0.12
0.00 0.00 0.00 0.01 0.01 0.11 0.13 0.08 0.09 0.06 0.12 0.21 0.41 0.55 0.49 0.34 0.09 0.01 0.01 0.00 0.01 0.02 0.03 0.04 0.06 0.04 0.04 0.06 0.11 0.09 0.07 0.15 0.17 0.15 0.18 0.20 0.19 0.22 0.18 0.15 0.20 0.23 0.25 0.27
0.06 0.00 0.00 0.00 0.00 0.03 0.10 0.14 0.23 0.23 0.08 0.12 0.18 0.38 0.29 0.32 0.25 0.13 0.03 0.00 0.00 0.00 0.00 0.01 0.01 0.01 0.01 0.01 0.02 0.05 0.08 0.05 0.06 0.07 0.09 0.10 0.17 0.16 0.16 0.20 0.23 0.22 0.30 0.38
0.13 0.05 0.07 0.02 0.00 0.00 0.03 0.07 0.08 0.12 0.16 0.27 0.24 0.40 0.37 0.11 0.22 0.22 0.21 0.13 0.07 0.03 0.01 0.00 0.00 0.00 0.00 0.00 0.00 0.01 0.03 0.04 0.04 0.05 0.06 0.09 0.10 0.10 0.13 0.18 0.26 0.31 0.34 0.32
0.19 0.17 0.08 0.01 0.00 0.00 0.03 0.04 0.04 0.06 0.12 0.12 0.11 0.19 0.31 0.22 0.13 0.17 0.19 0.23 0.18 0.06 0.03 0.01 0.00 0.00 0.01 0.00 0.01 0.01 0.02 0.02 0.04 0.06 0.06 0.06 0.09 0.14 0.24 0.30 0.30 0.26 0.19 0.18
0.23 0.21 0.12 0.02 0.00 0.00 0.01 0.06 0.01 0.01 0.07 0.13 0.05 0.07 0.20 0.33 0.35 0.33 0.19 0.08 0.04 0.03 0.02 0.01 0.00 0.00 0.01 0.01 0.01 0.01 0.01 0.01 0.02 0.03 0.05 0.10 0.21 0.24 0.20 0.15 0.11 0.12 0.13 0.13
0.23 0.23 0.07 0.01 0.01 0.01 0.08 0.15 0.01 0.00 0.01 0.08 0.24 0.22 0.40 0.38 0.49 0.49 0.16 0.02 0.00 0.00 0.01 0.01 0.00 0.00 0.00 0.00 0.00 0.00 0.01 0.02 0.06 0.10 0.17 0.20 0.15 0.09 0.06 0.06 0.06 0.07 0.08 0.08
0.27 0.26 0.08 0.02 0.06 0.14 0.20 0.06 0.02 0.01 0.01 0.02 0.13 0.11 0.29 0.20 0.24 0.19 0.11 0.00 0.00 0.00 0.00 0.00 0.00 0.00 0.01 0.00 0.01 0.02 0.06 0.11 0.17 0.21 0.19 0.13 0.09 0.09 0.09 0.07 0.08 0.09 0.09 0.11
0.11 0.07 0.08 0.09 0.11 0.10 0.05 0.12 0.11 0.28 0.30 0.28 0.25 0.34 0.36 0.33 0.29 0.30 0.08 0.00 0.00 0.00 0.00 0.00 0.00 0.00 0.02 0.04 0.07 0.09 0.12 0.15 0.17 0.13 0.07 0.05 0.08 0.11 0.12 0.11 0.13 0.15 0.17 0.22
0.56 0.34 0.14 0.24 0.22 0.06 0.03 0.04 0.05 0.10 0.57 0.88 0.91 0.80 0.74 0.64 0.39 0.21 0.06 0.01 0.00 0.00 0.00 0.02 0.04 0.05 0.08 0.09 0.07 0.06 0.06 0.10 0.07 0.06 0.09 0.05 0.09 0.11 0.12 0.12 0.16 0.21 0.30 0.35
0.57 0.57 0.35 0.39 0.64 0.37 0.17 0.13 0.13 0.10 0.09 0.21 0.29 0.30 0.18 0.16 0.16 0.11 0.08 0.06 0.04 0.04 0.08 0.08 0.07 0.08 0.08 0.09 0.10 0.13 0.11 0.11 0.11 0.11 0.12 0.12 0.16 0.24 0.22 0.33 0.40 0.41 0.48 0.51
0.57 0.87 0.95 0.93 0.52 0.44 0.52 0.38 0.21 0.10 0.08 0.12 0.18 0.16 0.13 0.12 0.12 0.17 0.22 0.21 0.18 0.17 0.14 0.13 0.15 0.20 0.20 0.18 0.17 0.17 0.16 0.18 0.22 0.17 0.18 0.19 0.18 0.28 0.47 0.53 0.52 0.59 0.66 0.68
0.78 0.84 0.93 0.77 0.41 0.25 0.16 0.23 0.26 0.18 0.15 0.11 0.06 0.04 0.06 0.11 0.15 0.21 0.24 0.30 0.37 0.36 0.33 0.33 0.36 0.39 0.37 0.37 0.32 0.31 0.30 0.27 0.29 0.30 0.32 0.34 0.36 0.35 0.47 0.67 0.73 0.89 0.98 1.00
0.48 0.43 0.23 0.17 0.14 0.08 0.04 0.02 0.02 0.02 0.03 0.03 0.02 0.01 0.08 0.22 0.26 0.21 0.20 0.19 0.19 0.25 0.39 0.49 0.56 0.69 0.85 0.88 0.87 0.92 0.97 0.97 0.89 0.87 0.92 1.05 1.17 1.27 1.32 1.34 1.35 1.43 1.41 1.24
0.12 0.11 0.10 0.07 0.03 0.02 0.01 0.01 0.01 0.00 0.00 0.02 0.11 0.27 0.29 0.19 0.12 0.09 0.09 0.13 0.17 0.21 0.33 0.44 0.56 0.83 1.01 1.17 1.34 1.53 1.65 1.77 1.76 1.70 1.61 1.42 1.26 1.15 1.12 1.12 1.11 1.15 1.13 1.04
0.00 0.00 0.01 0.02 0.02 0.01 0.00 0.01 0.01 0.01 0.05 0.18 0.26 0.16 0.08 0.06 0.08 0.12 0.12 0.11 0.11 0.18 0.25 0.28 0.42 0.73 0.80 0.89 0.99 1.07 1.07 1.01 0.89 0.85 0.83 0.78 0.75 0.69 0.66 0.63 0.60 0.57 0.54 0.52
0.03 0.03 0.03 0.03 0.02 0.02 0.03 0.04 0.05 0.09 0.11 0.11 0.10 0.09 0.07 0.08 0.09 0.16 0.28 0.35 0.40 0.54 0.67 0.72 0.98 1.01 0.93 0.82 0.69 0.69 0.66 0.65 0.61 0.56 0.54 0.50 0.46 0.40 0.36 0.33 0.31 0.28 0.28 0.20
0.17 0.19 0.19 0.18 0.14 0.09 0.13 0.15 0.15 0.14 0.18 0.19 0.20 0.21 0.24 0.29 0.39 0.53 0.67 0.68 0.68 0.80 0.96 1.03 0.91 0.80 0.72 0.64 0.53 0.46 0.38 0.34 0.29 0.25 0.23 0.22 0.20 0.19 0.19 0.18 0.15 0.14 0.13 0.11
0.21 0.21 0.25 0.24 0.24 0.21 0.20 0.19 0.20 0.24 0.29 0.31 0.35 0.51 0.62 0.77 0.85 0.99 1.04 0.92 0.87 0.77 0.93 0.72 0.55 0.40 0.34 0.28 0.20 0.17 0.16 0.14 0.12 0.12 0.12 0.12 0.12 0.13 0.14 0.17 0.19 0.19 0.18 0.15
0.29 0.31 0.28 0.28 0.26 0.24 0.26 0.35 0.37 0.50 0.74 0.75 0.82 0.94 1.01 1.17 1.08 0.96 0.79 0.70 0.68 0.62 0.52 0.38 0.27 0.20 0.16 0.14 0.10 0.09 0.10 0.09 0.09 0.10 0.10 0.11 0.12 0.11 0.12 0.12 0.16 0.20 0.22 0.22
0.46 0.47 0.52 0.57 0.69 0.80 0.87 0.98 0.81 0.92 1.14 1.01 0.82 0.88 0.82 0.85 0.73 0.61 0.44 0.39 0.49 0.34 0.26 0.21 0.16 0.13 0.09 0.07 0.06 0.07 0.07 0.07 0.07 0.08 0.11 0.13 0.16 0.17 0.18 0.20 0.21 0.21 0.22 0.23
0.94 0.88 0.96 0.93 0.75 0.91 1.01 0.94 0.76 0.75 0.74 0.70 0.65 0.61 0.49 0.51 0.44 0.36 0.33 0.28 0.30 0.19 0.13 0.10 0.07 0.05 0.04 0.03 0.04 0.05 0.06 0.09 0.12 0.14 0.17 0.18 0.23 0.26 0.29 0.30 0.31 0.31 0.34 0.35
0.94 0.82 0.76 0.71 0.61 0.64 0.63 0.56 0.55 0.44 0.43 0.41 0.37 0.34 0.27 0.27 0.22 0.15 0.17 0.16 0.09 0.07 0.05 0.05 0.03 0.01 0.02 0.06 0.09 0.10 0.13 0.15 0.16 0.19 0.26 0.32 0.34 0.32 0.27 0.23 0.21 0.19 0.19 0.17
0.58 0.51 0.49 0.46 0.30 0.18 0.22 0.29 0.20 0.17 0.15 0.15 0.14 0.13 0.10 0.08 0.10 0.07 0.06 0.05 0.03 0.02 0.02 0.04 0.03 0.03 0.05 0.09 0.10 0.12 0.17 0.21 0.25 0.27 0.24 0.19 0.19 0.17 0.16 0.13 0.09 0.10 0.09 0.08
0.38 0.36 0.31 0.22 0.15 0.19 0.17 0.15 0.09 0.09 0.08 0.08 0.07 0.05 0.04 0.04 0.06 0.07 0.04 0.03 0.02 0.04 0.06 0.04 0.05 0.06 0.09 0.11 0.14 0.16 0.19 0.19 0.19 0.19 0.17 0.16 0.14 0.12 0.10 0.09 0.08 0.08 0.07 0.06
0.21 0.19 0.21 0.19 0.20 0.18 0.15 0.11 0.13 0.15 0.09 0.08 0.09 0.09 0.08 0.05 0.05 0.05 0.05 0.03 0.03 0.03 0.09 0.12 0.11 0.12 0.15 0.18 0.19 0.19 0.19 0.16 0.14 0.13 0.11 0.09 0.08 0.08 0.06 0.05 0.04 0.03 0.03 0.03
0.21 0.19 0.16 0.17 0.17 0.13 0.11 0.11 0.11 0.10 0.10 0.10 0.11 0.11 0.09 0.07 0.05 0.03 0.04 0.04 0.05 0.08 0.12 0.14 0.15 0.16 0.16 0.15 0.14 0.12 0.11 0.09 0.08 0.06 0.05 0.04 0.04 0.04 0.03 0.02 0.02 0.02 0.02 0.03